Wetterdaten: Montag, 25.02.2013
Datum Zeit Temp. Aussen +5cm Feuchte Auss Luftdruck Regen Sonnenschein Regendauer UV Solar Windben
25.02.2013 00:00 0,4 C -1,0 C 99 % 1017,9 hPa 0,0 l/m 0 min 0 min 0,0 UV-I 0 W/m 0,0 km/h (0 Bft)
25.02.2013 00:02 0,4 C -1,0 C 99 % 1017,9 hPa 0,0 l/m 0 min 0 min 0,0 UV-I 0 W/m 2,6 km/h (1 Bft)
25.02.2013 00:04 0,4 C -1,0 C 99 % 1018,0 hPa 0,0 l/m 0 min 0 min 0,0 UV-I 0 W/m 7,7 km/h (2 Bft)
25.02.2013 00:06 0,4 C -1,0 C 99 % 1018,0 hPa 0,0 l/m 0 min 0 min 0,0 UV-I 0 W/m 2,6 km/h (1 Bft)
25.02.2013 00:08 0,4 C -1,0 C 99 % 1017,9 hPa 0,0 l/m 0 min 0 min 0,0 UV-I 0 W/m 5,1 km/h (1 Bft)
25.02.2013 00:10 0,4 C -1,0 C 99 % 1017,9 hPa 0,0 l/m 0 min 0 min 0,0 UV-I 0 W/m 20,6 km/h (4 Bft)
25.02.2013 00:12 0,4 C -1,0 C 99 % 1017,8 hPa 0,0 l/m 0 min 0 min 0,0 UV-I 0 W/m 7,7 km/h (2 Bft)
25.02.2013 00:14 0,4 C -1,0 C 99 % 1017,8 hPa 0,0 l/m 0 min 0 min 0,0 UV-I 0 W/m 12,9 km/h (3 Bft)
25.02.2013 00:16 0,4 C -1,0 C 99 % 1017,7 hPa 0,0 l/m 0 min 0 min 0,0 UV-I 0 W/m 10,3 km/h (2 Bft)
25.02.2013 00:18 0,4 C -1,0 C 99 % 1017,7 hPa 0,0 l/m 0 min 0 min 0,0 UV-I 0 W/m 7,7 km/h (2 Bft)
25.02.2013 00:20 0,4 C -1,0 C 99 % 1017,7 hPa 0,0 l/m 0 min 0 min 0,0 UV-I 0 W/m 7,7 km/h (2 Bft)
25.02.2013 00:22 0,4 C -1,0 C 99 % 1017,8 hPa 0,0 l/m 0 min 0 min 0,0 UV-I 0 W/m 10,3 km/h (2 Bft)
25.02.2013 00:24 0,5 C -1,0 C 99 % 1017,8 hPa 0,0 l/m 0 min 0 min 0,0 UV-I 0 W/m 10,3 km/h (2 Bft)
25.02.2013 00:26 0,4 C -1,0 C 99 % 1017,8 hPa 0,0 l/m 0 min 0 min 0,0 UV-I 0 W/m 10,3 km/h (2 Bft)
25.02.2013 00:28 0,5 C -1,0 C 99 % 1017,8 hPa 0,0 l/m 0 min 0 min 0,0 UV-I 0 W/m 7,7 km/h (2 Bft)
25.02.2013 00:30 0,5 C -1,0 C 99 % 1017,9 hPa 0,0 l/m 0 min 0 min 0,0 UV-I 0 W/m 7,7 km/h (2 Bft)
25.02.2013 00:32 0,5 C -1,0 C 99 % 1017,9 hPa 0,0 l/m 0 min 0 min 0,0 UV-I 0 W/m 7,7 km/h (2 Bft)
25.02.2013 00:34 0,5 C -1,0 C 99 % 1017,9 hPa 0,0 l/m 0 min 0 min 0,0 UV-I 0 W/m 10,3 km/h (2 Bft)
25.02.2013 00:36 0,5 C -1,0 C 99 % 1017,9 hPa 0,0 l/m 0 min 0 min 0,0 UV-I 0 W/m 10,3 km/h (2 Bft)
25.02.2013 00:38 0,5 C -1,0 C 99 % 1017,9 hPa 0,0 l/m 0 min 0 min 0,0 UV-I 0 W/m 5,1 km/h (1 Bft)
25.02.2013 00:40 0,5 C -0,4 C 99 % 1017,9 hPa 0,0 l/m 0 min 0 min 0,0 UV-I 0 W/m 7,7 km/h (2 Bft)
25.02.2013 00:42 0,5 C -1,0 C 99 % 1017,8 hPa 0,0 l/m 0 min 0 min 0,0 UV-I 0 W/m 10,3 km/h (2 Bft)
25.02.2013 00:44 0,5 C -1,0 C 99 % 1017,8 hPa 0,0 l/m 0 min 0 min 0,0 UV-I 0 W/m 10,3 km/h (2 Bft)
25.02.2013 00:46 0,5 C -0,4 C 99 % 1017,8 hPa 0,0 l/m 0 min 0 min 0,0 UV-I 0 W/m 10,3 km/h (2 Bft)
25.02.2013 00:48 0,5 C -0,4 C 99 % 1017,8 hPa 0,0 l/m 0 min 0 min 0,0 UV-I 0 W/m 10,3 km/h (2 Bft)
25.02.2013 00:50 0,5 C -0,4 C 99 % 1017,9 hPa 0,0 l/m 0 min 0 min 0,0 UV-I 0 W/m 7,7 km/h (2 Bft)
25.02.2013 00:52 0,5 C -0,4 C 99 % 1017,8 hPa 0,0 l/m 0 min 0 min 0,0 UV-I 0 W/m 7,7 km/h (2 Bft)
25.02.2013 00:54 0,5 C -0,4 C 99 % 1017,8 hPa 0,0 l/m 0 min 0 min 0,0 UV-I 0 W/m 7,7 km/h (2 Bft)
25.02.2013 00:56 0,5 C -0,4 C 99 % 1017,8 hPa 0,0 l/m 0 min 0 min 0,0 UV-I 0 W/m 10,3 km/h (2 Bft)
25.02.2013 00:58 0,5 C -0,4 C 99 % 1017,7 hPa 0,0 l/m 0 min 0 min 0,0 UV-I 0 W/m 12,9 km/h (3 Bft)
25.02.2013 01:00 0,5 C -0,4 C 99 % 1017,7 hPa 0,0 l/m 0 min 0 min 0,0 UV-I 0 W/m 12,9 km/h (3 Bft)
25.02.2013 01:02 0,5 C -0,4 C 99 % 1017,6 hPa 0,0 l/m 0 min 0 min 0,0 UV-I 0 W/m 12,9 km/h (3 Bft)
25.02.2013 01:04 0,5 C -0,4 C 99 % 1017,6 hPa 0,0 l/m 0 min 0 min 0,0 UV-I 0 W/m 12,9 km/h (3 Bft)
25.02.2013 01:06 0,5 C -0,4 C 99 % 1017,6 hPa 0,0 l/m 0 min 0 min 0,0 UV-I 0 W/m 12,9 km/h (3 Bft)
25.02.2013 01:08 0,5 C -0,4 C 99 % 1017,7 hPa 0,0 l/m 0 min 0 min 0,0 UV-I 0 W/m 15,4 km/h (3 Bft)
25.02.2013 01:10 0,5 C -0,4 C 99 % 1017,6 hPa 0,0 l/m 0 min 0 min 0,0 UV-I 0 W/m 18,0 km/h (3 Bft)
25.02.2013 01:12 0,5 C -0,4 C 99 % 1017,7 hPa 0,0 l/m 0 min 0 min 0,0 UV-I 0 W/m 5,1 km/h (1 Bft)
25.02.2013 01:14 0,5 C -0,4 C 99 % 1017,6 hPa 0,0 l/m 0 min 0 min 0,0 UV-I 0 W/m 5,1 km/h (1 Bft)
25.02.2013 01:16 0,5 C -0,4 C 99 % 1017,5 hPa 0,0 l/m 0 min 0 min 0,0 UV-I 0 W/m 18,0 km/h (3 Bft)
25.02.2013 01:18 0,5 C -0,4 C 99 % 1017,5 hPa 0,0 l/m 0 min 0 min 0,0 UV-I 0 W/m 10,3 km/h (2 Bft)
25.02.2013 01:20 0,5 C -0,4 C 99 % 1017,6 hPa 0,0 l/m 0 min 0 min 0,0 UV-I 0 W/m 10,3 km/h (2 Bft)
25.02.2013 01:22 0,5 C -0,4 C 99 % 1017,6 hPa 0,0 l/m 0 min 0 min 0,0 UV-I 0 W/m 15,4 km/h (3 Bft)
25.02.2013 01:24 0,5 C -0,4 C 99 % 1017,7 hPa 0,0 l/m 0 min 0 min 0,0 UV-I 0 W/m 5,1 km/h (1 Bft)
25.02.2013 01:26 0,6 C -0,4 C 99 % 1017,7 hPa 0,0 l/m 0 min 0 min 0,0 UV-I 0 W/m 10,3 km/h (2 Bft)
25.02.2013 01:28 0,5 C -0,4 C 99 % 1017,8 hPa 0,0 l/m 0 min 0 min 0,0 UV-I 0 W/m 7,7 km/h (2 Bft)
25.02.2013 01:30 0,5 C -0,4 C 99 % 1017,8 hPa 0,0 l/m 0 min 0 min 0,0 UV-I 0 W/m 10,3 km/h (2 Bft)
25.02.2013 01:32 0,6 C -0,4 C 99 % 1017,8 hPa 0,0 l/m 0 min 0 min 0,0 UV-I 0 W/m 10,3 km/h (2 Bft)
25.02.2013 01:34 0,6 C -0,4 C 99 % 1017,8 hPa 0,0 l/m 0 min 0 min 0,0 UV-I 0 W/m 12,9 km/h (3 Bft)
25.02.2013 01:36 0,6 C -0,4 C 99 % 1017,8 hPa 0,0 l/m 0 min 0 min 0,0 UV-I 0 W/m 12,9 km/h (3 Bft)
25.02.2013 01:38 0,6 C -0,4 C 99 % 1017,8 hPa 0,0 l/m 0 min 0 min 0,0 UV-I 0 W/m 10,3 km/h (2 Bft)
25.02.2013 01:40 0,6 C -0,4 C 99 % 1017,8 hPa 0,0 l/m 0 min 0 min 0,0 UV-I 0 W/m 7,7 km/h (2 Bft)
25.02.2013 01:42 0,6 C -0,4 C 99 % 1017,8 hPa 0,0 l/m 0 min 0 min 0,0 UV-I 0 W/m 10,3 km/h (2 Bft)
25.02.2013 01:44 0,6 C -0,4 C 99 % 1017,8 hPa 0,0 l/m 0 min 0 min 0,0 UV-I 0 W/m 5,1 km/h (1 Bft)
25.02.2013 01:46 0,6 C -0,4 C 99 % 1017,8 hPa 0,0 l/m 0 min 0 min 0,0 UV-I 0 W/m 10,3 km/h (2 Bft)
25.02.2013 01:48 0,6 C -0,4 C 99 % 1017,9 hPa 0,0 l/m 0 min 0 min 0,0 UV-I 0 W/m 0,0 km/h (0 Bft)
25.02.2013 01:50 0,6 C -0,4 C 99 % 1017,9 hPa 0,0 l/m 0 min 0 min 0,0 UV-I 0 W/m 10,3 km/h (2 Bft)
25.02.2013 01:52 0,6 C -0,4 C 99 % 1017,8 hPa 0,0 l/m 0 min 0 min 0,0 UV-I 0 W/m 5,1 km/h (1 Bft)
25.02.2013 01:54 0,6 C -0,4 C 99 % 1017,9 hPa 0,0 l/m 0 min 0 min 0,0 UV-I 0 W/m 7,7 km/h (2 Bft)
25.02.2013 01:56 0,6 C -0,4 C 99 % 1017,9 hPa 0,0 l/m 0 min 0 min 0,0 UV-I 0 W/m 7,7 km/h (2 Bft)
25.02.2013 01:58 0,6 C -0,4 C 99 % 1017,9 hPa 0,0 l/m 0 min 0 min 0,0 UV-I 0 W/m 7,7 km/h (2 Bft)
25.02.2013 02:00 0,6 C -0,4 C 99 % 1017,9 hPa 0,0 l/m 0 min 0 min 0,0 UV-I 0 W/m 5,1 km/h (1 Bft)
25.02.2013 02:02 0,6 C -0,4 C 99 % 1017,9 hPa 0,0 l/m 0 min 0 min 0,0 UV-I 0 W/m 7,7 km/h (2 Bft)
25.02.2013 02:04 0,6 C -0,4 C 99 % 1017,9 hPa 0,0 l/m 0 min 0 min 0,0 UV-I 0 W/m 10,3 km/h (2 Bft)
25.02.2013 02:06 0,6 C -0,4 C 99 % 1018,0 hPa 0,0 l/m 0 min 0 min 0,0 UV-I 0 W/m 7,7 km/h (2 Bft)
25.02.2013 02:08 0,6 C -0,4 C 99 % 1017,9 hPa 0,0 l/m 0 min 0 min 0,0 UV-I 0 W/m 7,7 km/h (2 Bft)
25.02.2013 02:10 0,6 C -0,4 C 99 % 1017,9 hPa 0,0 l/m 0 min 0 min 0,0 UV-I 0 W/m 10,3 km/h (2 Bft)
25.02.2013 02:12 0,6 C -0,4 C 99 % 1017,8 hPa 0,0 l/m 0 min 0 min 0,0 UV-I 0 W/m 5,1 km/h (1 Bft)
25.02.2013 02:14 0,6 C -0,4 C 99 % 1017,9 hPa 0,0 l/m 0 min 0 min 0,0 UV-I 0 W/m 0,0 km/h (0 Bft)
25.02.2013 02:16 0,6 C -0,4 C 100 % 1017,9 hPa 0,0 l/m 0 min 0 min 0,0 UV-I 0 W/m 0,0 km/h (0 Bft)
25.02.2013 02:18 0,6 C -0,4 C 100 % 1017,9 hPa 0,0 l/m 0 min 0 min 0,0 UV-I 0 W/m 7,7 km/h (2 Bft)
25.02.2013 02:20 0,6 C -0,4 C 100 % 1017,9 hPa 0,0 l/m 0 min 0 min 0,0 UV-I 0 W/m 10,3 km/h (2 Bft)
25.02.2013 02:22 0,6 C -0,4 C 100 % 1017,9 hPa 0,0 l/m 0 min 0 min 0,0 UV-I 0 W/m 7,7 km/h (2 Bft)
25.02.2013 02:24 0,6 C -0,4 C 100 % 1018,0 hPa 0,0 l/m 0 min 0 min 0,0 UV-I 0 W/m 7,7 km/h (2 Bft)
25.02.2013 02:26 0,6 C -0,4 C 100 % 1018,0 hPa 0,0 l/m 0 min 0 min 0,0 UV-I 0 W/m 10,3 km/h (2 Bft)
25.02.2013 02:28 0,6 C -0,4 C 100 % 1018,0 hPa 0,0 l/m 0 min 0 min 0,0 UV-I 0 W/m 7,7 km/h (2 Bft)
25.02.2013 02:30 0,6 C -0,4 C 100 % 1018,0 hPa 0,0 l/m 0 min 0 min 0,0 UV-I 0 W/m 7,7 km/h (2 Bft)
25.02.2013 02:32 0,6 C -0,4 C 100 % 1017,9 hPa 0,0 l/m 0 min 0 min 0,0 UV-I 0 W/m 2,6 km/h (1 Bft)
25.02.2013 02:34 0,6 C -0,4 C 100 % 1017,9 hPa 0,0 l/m 0 min 0 min 0,0 UV-I 0 W/m 10,3 km/h (2 Bft)
25.02.2013 02:36 0,6 C -0,4 C 100 % 1017,9 hPa 0,0 l/m 0 min 0 min 0,0 UV-I 0 W/m 7,7 km/h (2 Bft)
25.02.2013 02:38 0,6 C -0,4 C 100 % 1017,8 hPa 0,0 l/m 0 min 0 min 0,0 UV-I 0 W/m 7,7 km/h (2 Bft)
25.02.2013 02:40 0,6 C -0,4 C 100 % 1017,9 hPa 0,0 l/m 0 min 0 min 0,0 UV-I 0 W/m 7,7 km/h (2 Bft)
25.02.2013 02:42 0,6 C -0,4 C 100 % 1017,9 hPa 0,0 l/m 0 min 0 min 0,0 UV-I 0 W/m 10,3 km/h (2 Bft)
25.02.2013 02:44 0,6 C -0,4 C 100 % 1017,9 hPa 0,0 l/m 0 min 0 min 0,0 UV-I 0 W/m 12,9 km/h (3 Bft)
25.02.2013 02:46 0,6 C -0,4 C 100 % 1017,8 hPa 0,0 l/m 0 min 0 min 0,0 UV-I 0 W/m 7,7 km/h (2 Bft)
25.02.2013 02:48 0,6 C -0,4 C 100 % 1017,8 hPa 0,0 l/m 0 min 0 min 0,0 UV-I 0 W/m 10,3 km/h (2 Bft)
25.02.2013 02:50 0,6 C -0,4 C 100 % 1017,8 hPa 0,0 l/m 0 min 0 min 0,0 UV-I 0 W/m 7,7 km/h (2 Bft)
25.02.2013 02:52 0,6 C -0,4 C 100 % 1017,8 hPa 0,0 l/m 0 min 0 min 0,0 UV-I 0 W/m 7,7 km/h (2 Bft)
25.02.2013 02:54 0,6 C -0,4 C 100 % 1017,8 hPa 0,0 l/m 0 min 0 min 0,0 UV-I 0 W/m 12,9 km/h (3 Bft)
25.02.2013 02:56 0,6 C -0,4 C 100 % 1017,8 hPa 0,0 l/m 0 min 0 min 0,0 UV-I 0 W/m 7,7 km/h (2 Bft)
25.02.2013 02:58 0,6 C -0,4 C 100 % 1017,8 hPa 0,0 l/m 0 min 0 min 0,0 UV-I 0 W/m 5,1 km/h (1 Bft)
25.02.2013 03:00 0,6 C -0,4 C 100 % 1017,8 hPa 0,0 l/m 0 min 0 min 0,0 UV-I 0 W/m 5,1 km/h (1 Bft)
25.02.2013 03:02 0,6 C -0,4 C 100 % 1017,8 hPa 0,0 l/m 0 min 0 min 0,0 UV-I 0 W/m 10,3 km/h (2 Bft)
25.02.2013 03:04 0,6 C -0,4 C 100 % 1017,8 hPa 0,0 l/m 0 min 0 min 0,0 UV-I 0 W/m 12,9 km/h (3 Bft)
25.02.2013 03:06 0,6 C -0,4 C 100 % 1017,9 hPa 0,0 l/m 0 min 0 min 0,0 UV-I 0 W/m 10,3 km/h (2 Bft)
25.02.2013 03:08 0,6 C -0,4 C 100 % 1017,7 hPa 0,0 l/m 0 min 0 min 0,0 UV-I 0 W/m 15,4 km/h (3 Bft)
25.02.2013 03:10 0,6 C -0,4 C 100 % 1017,7 hPa 0,0 l/m 0 min 0 min 0,0 UV-I 0 W/m 10,3 km/h (2 Bft)
25.02.2013 03:12 0,6 C -0,4 C 100 % 1017,7 hPa 0,0 l/m 0 min 0 min 0,0 UV-I 0 W/m 10,3 km/h (2 Bft)
25.02.2013 03:14 0,6 C -0,4 C 100 % 1017,7 hPa 0,0 l/m 0 min 0 min 0,0 UV-I 0 W/m 10,3 km/h (2 Bft)
25.02.2013 03:16 0,6 C -0,4 C 100 % 1017,8 hPa 0,0 l/m 0 min 0 min 0,0 UV-I 0 W/m 7,7 km/h (2 Bft)
25.02.2013 03:18 0,6 C -0,4 C 100 % 1017,7 hPa 0,0 l/m 0 min 0 min 0,0 UV-I 0 W/m 10,3 km/h (2 Bft)
25.02.2013 03:20 0,6 C -0,4 C 100 % 1017,8 hPa 0,0 l/m 0 min 0 min 0,0 UV-I 0 W/m 7,7 km/h (2 Bft)
25.02.2013 03:22 0,6 C -0,4 C 100 % 1017,9 hPa 0,0 l/m 0 min 0 min 0,0 UV-I 0 W/m 5,1 km/h (1 Bft)
25.02.2013 03:24 0,6 C -0,4 C 100 % 1017,9 hPa 0,0 l/m 0 min 0 min 0,0 UV-I 0 W/m 7,7 km/h (2 Bft)
25.02.2013 03:26 0,6 C -0,4 C 100 % 1017,8 hPa 0,0 l/m 0 min 0 min 0,0 UV-I 0 W/m 5,1 km/h (1 Bft)
25.02.2013 03:28 0,6 C -0,4 C 100 % 1017,8 hPa 0,0 l/m 0 min 0 min 0,0 UV-I 0 W/m 10,3 km/h (2 Bft)
25.02.2013 03:30 0,6 C -0,4 C 100 % 1017,8 hPa 0,0 l/m 0 min 0 min 0,0 UV-I 0 W/m 7,7 km/h (2 Bft)
25.02.2013 03:32 0,6 C -0,4 C 100 % 1017,9 hPa 0,0 l/m 0 min 0 min 0,0 UV-I 0 W/m 7,7 km/h (2 Bft)
25.02.2013 03:34 0,6 C -0,4 C 100 % 1017,9 hPa 0,0 l/m 0 min 0 min 0,0 UV-I 0 W/m 7,7 km/h (2 Bft)
25.02.2013 03:36 0,6 C -0,4 C 100 % 1017,9 hPa 0,0 l/m 0 min 0 min 0,0 UV-I 0 W/m 10,3 km/h (2 Bft)
25.02.2013 03:38 0,6 C -0,4 C 100 % 1017,9 hPa 0,0 l/m 0 min 0 min 0,0 UV-I 0 W/m 10,3 km/h (2 Bft)
25.02.2013 03:40 0,6 C -0,4 C 100 % 1017,9 hPa 0,0 l/m 0 min 0 min 0,0 UV-I 0 W/m 20,6 km/h (4 Bft)
25.02.2013 03:42 0,6 C -0,4 C 100 % 1018,0 hPa 0,0 l/m 0 min 0 min 0,0 UV-I 0 W/m 12,9 km/h (3 Bft)
25.02.2013 03:44 0,6 C -0,4 C 100 % 1018,1 hPa 0,0 l/m 0 min 0 min 0,0 UV-I 0 W/m 7,7 km/h (2 Bft)
25.02.2013 03:46 0,6 C -0,4 C 100 % 1018,0 hPa 0,0 l/m 0 min 0 min 0,0 UV-I 0 W/m 12,9 km/h (3 Bft)
25.02.2013 03:48 0,6 C -0,4 C 100 % 1018,0 hPa 0,0 l/m 0 min 0 min 0,0 UV-I 0 W/m 10,3 km/h (2 Bft)
25.02.2013 03:50 0,6 C -0,4 C 100 % 1018,0 hPa 0,0 l/m 0 min 0 min 0,0 UV-I 0 W/m 10,3 km/h (2 Bft)
25.02.2013 03:52 0,6 C -0,4 C 100 % 1018,0 hPa 0,0 l/m 0 min 0 min 0,0 UV-I 0 W/m 12,9 km/h (3 Bft)
25.02.2013 03:54 0,6 C -0,4 C 100 % 1018,0 hPa 0,0 l/m 0 min 0 min 0,0 UV-I 0 W/m 10,3 km/h (2 Bft)
25.02.2013 03:56 0,6 C -0,4 C 100 % 1018,0 hPa 0,0 l/m 0 min 0 min 0,0 UV-I 0 W/m 10,3 km/h (2 Bft)
25.02.2013 03:58 0,6 C -0,4 C 100 % 1017,9 hPa 0,0 l/m 0 min 0 min 0,0 UV-I 0 W/m 15,4 km/h (3 Bft)
25.02.2013 04:00 0,7 C -0,4 C 100 % 1017,9 hPa 0,0 l/m 0 min 0 min 0,0 UV-I 0 W/m 18,0 km/h (3 Bft)
25.02.2013 04:02 0,7 C -0,4 C 100 % 1017,9 hPa 0,0 l/m 0 min 0 min 0,0 UV-I 0 W/m 12,9 km/h (3 Bft)
25.02.2013 04:04 0,7 C -0,4 C 100 % 1017,9 hPa 0,0 l/m 0 min 0 min 0,0 UV-I 0 W/m 15,4 km/h (3 Bft)
25.02.2013 04:06 0,7 C -0,4 C 100 % 1017,9 hPa 0,0 l/m 0 min 0 min 0,0 UV-I 0 W/m 15,4 km/h (3 Bft)
25.02.2013 04:08 0,6 C -0,4 C 100 % 1017,9 hPa 0,0 l/m 0 min 0 min 0,0 UV-I 0 W/m 15,4 km/h (3 Bft)
25.02.2013 04:10 0,7 C -0,4 C 100 % 1017,9 hPa 0,0 l/m 0 min 0 min 0,0 UV-I 0 W/m 10,3 km/h (2 Bft)
25.02.2013 04:12 0,7 C -0,4 C 100 % 1017,8 hPa 0,0 l/m 0 min 0 min 0,0 UV-I 0 W/m 12,9 km/h (3 Bft)
25.02.2013 04:14 0,7 C -0,4 C 100 % 1018,0 hPa 0,0 l/m 0 min 0 min 0,0 UV-I 0 W/m 15,4 km/h (3 Bft)
25.02.2013 04:16 0,6 C -0,4 C 100 % 1018,1 hPa 0,0 l/m 0 min 0 min 0,0 UV-I 0 W/m 10,3 km/h (2 Bft)
25.02.2013 04:18 0,7 C -0,4 C 100 % 1018,0 hPa 0,0 l/m 0 min 0 min 0,0 UV-I 0 W/m 10,3 km/h (2 Bft)
25.02.2013 04:20 0,7 C -0,4 C 100 % 1018,0 hPa 0,0 l/m 0 min 0 min 0,0 UV-I 0 W/m 7,7 km/h (2 Bft)
25.02.2013 04:22 0,7 C -0,4 C 100 % 1018,1 hPa 0,0 l/m 0 min 0 min 0,0 UV-I 0 W/m 7,7 km/h (2 Bft)
25.02.2013 04:24 0,7 C -0,4 C 100 % 1018,0 hPa 0,0 l/m 0 min 0 min 0,0 UV-I 0 W/m 10,3 km/h (2 Bft)
25.02.2013 04:26 0,7 C -0,4 C 100 % 1018,1 hPa 0,0 l/m 0 min 0 min 0,0 UV-I 0 W/m 10,3 km/h (2 Bft)
25.02.2013 04:28 0,7 C -0,4 C 100 % 1018,2 hPa 0,0 l/m 0 min 0 min 0,0 UV-I 0 W/m 10,3 km/h (2 Bft)
25.02.2013 04:30 0,7 C -0,4 C 100 % 1018,3 hPa 0,0 l/m 0 min 0 min 0,0 UV-I 0 W/m 10,3 km/h (2 Bft)
25.02.2013 04:32 0,7 C -0,4 C 100 % 1018,2 hPa 0,0 l/m 0 min 0 min 0,0 UV-I 0 W/m 10,3 km/h (2 Bft)
25.02.2013 04:34 0,7 C -0,4 C 100 % 1018,2 hPa 0,0 l/m 0 min 0 min 0,0 UV-I 0 W/m 7,7 km/h (2 Bft)
25.02.2013 04:36 0,7 C -0,4 C 100 % 1018,3 hPa 0,0 l/m 0 min 0 min 0,0 UV-I 0 W/m 2,6 km/h (1 Bft)
25.02.2013 04:38 0,7 C -0,4 C 100 % 1018,3 hPa 0,0 l/m 0 min 0 min 0,0 UV-I 0 W/m 10,3 km/h (2 Bft)
25.02.2013 04:40 0,7 C -0,4 C 100 % 1018,3 hPa 0,0 l/m 0 min 0 min 0,0 UV-I 0 W/m 5,1 km/h (1 Bft)
25.02.2013 04:42 0,7 C -0,4 C 100 % 1018,3 hPa 0,0 l/m 0 min 0 min 0,0 UV-I 0 W/m 5,1 km/h (1 Bft)
25.02.2013 04:44 0,7 C -0,4 C 100 % 1018,4 hPa 0,0 l/m 0 min 0 min 0,0 UV-I 0 W/m 7,7 km/h (2 Bft)
25.02.2013 04:46 0,7 C -0,4 C 100 % 1018,4 hPa 0,0 l/m 0 min 0 min 0,0 UV-I 0 W/m 7,7 km/h (2 Bft)
25.02.2013 04:48 0,7 C -0,4 C 100 % 1018,5 hPa 0,0 l/m 0 min 0 min 0,0 UV-I 0 W/m 10,3 km/h (2 Bft)
25.02.2013 04:50 0,7 C -0,4 C 100 % 1018,3 hPa 0,0 l/m 0 min 0 min 0,0 UV-I 0 W/m 7,7 km/h (2 Bft)
25.02.2013 04:52 0,7 C -0,4 C 100 % 1018,3 hPa 0,0 l/m 0 min 0 min 0,0 UV-I 0 W/m 7,7 km/h (2 Bft)
25.02.2013 04:54 0,7 C -0,4 C 100 % 1018,3 hPa 0,0 l/m 0 min 0 min 0,0 UV-I 0 W/m 10,3 km/h (2 Bft)
25.02.2013 04:56 0,7 C -0,4 C 100 % 1018,3 hPa 0,0 l/m 0 min 0 min 0,0 UV-I 0 W/m 10,3 km/h (2 Bft)
25.02.2013 04:58 0,7 C -0,4 C 100 % 1018,3 hPa 0,0 l/m 0 min 0 min 0,0 UV-I 0 W/m 10,3 km/h (2 Bft)
25.02.2013 05:00 0,7 C -0,4 C 100 % 1018,3 hPa 0,0 l/m 0 min 0 min 0,0 UV-I 0 W/m 10,3 km/h (2 Bft)
25.02.2013 05:02 0,7 C -0,4 C 100 % 1018,5 hPa 0,0 l/m 0 min 0 min 0,0 UV-I 0 W/m 7,7 km/h (2 Bft)
25.02.2013 05:04 0,7 C -0,4 C 100 % 1018,5 hPa 0,0 l/m 0 min 0 min 0,0 UV-I 0 W/m 0,0 km/h (0 Bft)
25.02.2013 05:06 0,7 C -0,4 C 100 % 1018,4 hPa 0,0 l/m 0 min 0 min 0,0 UV-I 0 W/m 7,7 km/h (2 Bft)
25.02.2013 05:08 0,7 C -0,4 C 100 % 1018,5 hPa 0,0 l/m 0 min 0 min 0,0 UV-I 0 W/m 5,1 km/h (1 Bft)
25.02.2013 05:10 0,7 C -0,4 C 100 % 1018,5 hPa 0,0 l/m 0 min 0 min 0,0 UV-I 0 W/m 0,0 km/h (0 Bft)
25.02.2013 05:12 0,7 C -0,4 C 100 % 1018,5 hPa 0,0 l/m 0 min 0 min 0,0 UV-I 0 W/m 12,9 km/h (3 Bft)
25.02.2013 05:14 0,7 C -0,4 C 100 % 1018,5 hPa 0,0 l/m 0 min 0 min 0,0 UV-I 0 W/m 7,7 km/h (2 Bft)
25.02.2013 05:16 0,7 C -0,4 C 100 % 1018,5 hPa 0,0 l/m 0 min 0 min 0,0 UV-I 0 W/m 5,1 km/h (1 Bft)
25.02.2013 05:18 0,7 C -0,4 C 100 % 1018,6 hPa 0,0 l/m 0 min 0 min 0,0 UV-I 0 W/m 0,0 km/h (0 Bft)
25.02.2013 05:20 0,7 C -0,4 C 100 % 1018,6 hPa 0,0 l/m 0 min 0 min 0,0 UV-I 0 W/m 0,0 km/h (0 Bft)
25.02.2013 05:22 0,7 C -0,4 C 100 % 1018,7 hPa 0,0 l/m 0 min 0 min 0,0 UV-I 0 W/m 0,0 km/h (0 Bft)
25.02.2013 05:24 0,7 C -0,4 C 100 % 1018,8 hPa 0,0 l/m 0 min 0 min 0,0 UV-I 0 W/m 7,7 km/h (2 Bft)
25.02.2013 05:26 0,7 C -0,4 C 100 % 1018,8 hPa 0,0 l/m 0 min 0 min 0,0 UV-I 0 W/m 2,6 km/h (1 Bft)
25.02.2013 05:28 0,7 C -0,4 C 100 % 1018,8 hPa 0,0 l/m 0 min 0 min 0,0 UV-I 0 W/m 5,1 km/h (1 Bft)
25.02.2013 05:30 0,7 C -0,4 C 100 % 1018,8 hPa 0,0 l/m 0 min 0 min 0,0 UV-I 0 W/m 5,1 km/h (1 Bft)
25.02.2013 05:32 0,7 C -0,4 C 100 % 1018,8 hPa 0,0 l/m 0 min 0 min 0,0 UV-I 0 W/m 0,0 km/h (0 Bft)
25.02.2013 05:34 0,7 C -0,4 C 100 % 1018,8 hPa 0,0 l/m 0 min 0 min 0,0 UV-I 0 W/m 10,3 km/h (2 Bft)
25.02.2013 05:36 0,7 C -0,4 C 100 % 1018,8 hPa 0,0 l/m 0 min 0 min 0,0 UV-I 0 W/m 12,9 km/h (3 Bft)
25.02.2013 05:38 0,7 C -0,4 C 100 % 1018,8 hPa 0,0 l/m 0 min 0 min 0,0 UV-I 0 W/m 10,3 km/h (2 Bft)
25.02.2013 05:40 0,7 C -0,4 C 100 % 1018,8 hPa 0,0 l/m 0 min 0 min 0,0 UV-I 0 W/m 18,0 km/h (3 Bft)
25.02.2013 05:42 0,7 C -0,4 C 100 % 1018,9 hPa 0,0 l/m 0 min 0 min 0,0 UV-I 0 W/m 7,7 km/h (2 Bft)
25.02.2013 05:44 0,7 C -0,4 C 100 % 1018,9 hPa 0,0 l/m 0 min 0 min 0,0 UV-I 0 W/m 2,6 km/h (1 Bft)
25.02.2013 05:46 0,7 C -0,4 C 100 % 1018,9 hPa 0,0 l/m 0 min 0 min 0,0 UV-I 0 W/m 10,3 km/h (2 Bft)
25.02.2013 05:48 0,7 C -0,4 C 100 % 1018,9 hPa 0,0 l/m 0 min 0 min 0,0 UV-I 0 W/m 2,6 km/h (1 Bft)
25.02.2013 05:50 0,7 C -0,4 C 100 % 1018,9 hPa 0,0 l/m 0 min 0 min 0,0 UV-I 0 W/m 12,9 km/h (3 Bft)
25.02.2013 05:52 0,7 C -0,4 C 100 % 1018,9 hPa 0,0 l/m 0 min 0 min 0,0 UV-I 0 W/m 10,3 km/h (2 Bft)
25.02.2013 05:54 0,8 C -0,4 C 100 % 1018,9 hPa 0,0 l/m 0 min 0 min 0,0 UV-I 0 W/m 7,7 km/h (2 Bft)
25.02.2013 05:56 0,7 C -0,4 C 100 % 1018,8 hPa 0,0 l/m 0 min 0 min 0,0 UV-I 0 W/m 7,7 km/h (2 Bft)
25.02.2013 05:58 0,8 C -0,4 C 100 % 1018,9 hPa 0,0 l/m 0 min 0 min 0,0 UV-I 0 W/m 7,7 km/h (2 Bft)
25.02.2013 06:00 0,8 C -0,4 C 100 % 1018,9 hPa 0,0 l/m 0 min 0 min 0,0 UV-I 0 W/m 7,7 km/h (2 Bft)
25.02.2013 06:02 0,8 C -0,4 C 100 % 1018,9 hPa 0,0 l/m 0 min 0 min 0,0 UV-I 0 W/m 10,3 km/h (2 Bft)
25.02.2013 06:04 0,7 C -0,4 C 100 % 1018,9 hPa 0,0 l/m 0 min 0 min 0,0 UV-I 0 W/m 10,3 km/h (2 Bft)
25.02.2013 06:06 0,8 C -0,4 C 100 % 1018,9 hPa 0,0 l/m 0 min 0 min 0,0 UV-I 0 W/m 5,1 km/h (1 Bft)
25.02.2013 06:08 0,7 C -0,4 C 100 % 1019,0 hPa 0,0 l/m 0 min 0 min 0,0 UV-I 0 W/m 7,7 km/h (2 Bft)
25.02.2013 06:10 0,8 C -0,4 C 100 % 1018,9 hPa 0,0 l/m 0 min 0 min 0,0 UV-I 0 W/m 5,1 km/h (1 Bft)
25.02.2013 06:12 0,8 C -0,4 C 100 % 1018,9 hPa 0,0 l/m 0 min 0 min 0,0 UV-I 0 W/m 7,7 km/h (2 Bft)
25.02.2013 06:14 0,8 C -0,4 C 100 % 1018,9 hPa 0,0 l/m 0 min 0 min 0,0 UV-I 0 W/m 10,3 km/h (2 Bft)
25.02.2013 06:16 0,8 C -0,4 C 100 % 1018,9 hPa 0,0 l/m 0 min 0 min 0,0 UV-I 0 W/m 7,7 km/h (2 Bft)
25.02.2013 06:18 0,8 C -0,4 C 100 % 1018,9 hPa 0,0 l/m 0 min 0 min 0,0 UV-I 0 W/m 10,3 km/h (2 Bft)
25.02.2013 06:20 0,8 C -0,4 C 100 % 1018,9 hPa 0,0 l/m 0 min 0 min 0,0 UV-I 0 W/m 7,7 km/h (2 Bft)
25.02.2013 06:22 0,8 C -0,4 C 100 % 1018,9 hPa 0,0 l/m 0 min 0 min 0,0 UV-I 0 W/m 10,3 km/h (2 Bft)
25.02.2013 06:24 0,8 C -0,4 C 100 % 1018,8 hPa 0,0 l/m 0 min 0 min 0,0 UV-I 0 W/m 12,9 km/h (3 Bft)
25.02.2013 06:26 0,8 C -0,4 C 100 % 1018,9 hPa 0,0 l/m 0 min 0 min 0,0 UV-I 0 W/m 7,7 km/h (2 Bft)
25.02.2013 06:28 0,8 C -0,4 C 100 % 1018,8 hPa 0,0 l/m 0 min 0 min 0,0 UV-I 0 W/m 12,9 km/h (3 Bft)
25.02.2013 06:30 0,8 C -0,4 C 100 % 1018,9 hPa 0,0 l/m 0 min 0 min 0,0 UV-I 0 W/m 7,7 km/h (2 Bft)
25.02.2013 06:32 0,8 C -0,4 C 100 % 1018,9 hPa 0,0 l/m 0 min 0 min 0,0 UV-I 0 W/m 7,7 km/h (2 Bft)
25.02.2013 06:34 0,8 C -0,4 C 100 % 1019,0 hPa 0,0 l/m 0 min 2 min 0,0 UV-I 0 W/m 7,7 km/h (2 Bft)
25.02.2013 06:36 0,8 C -0,4 C 100 % 1019,1 hPa 0,0 l/m 0 min 0 min 0,0 UV-I 0 W/m 7,7 km/h (2 Bft)
25.02.2013 06:38 0,8 C -0,4 C 100 % 1019,1 hPa 0,0 l/m 0 min 0 min 0,0 UV-I 0 W/m 7,7 km/h (2 Bft)
25.02.2013 06:40 0,8 C -0,4 C 100 % 1019,1 hPa 0,0 l/m 0 min 0 min 0,0 UV-I 0 W/m 0,0 km/h (0 Bft)
25.02.2013 06:42 0,8 C -0,4 C 100 % 1019,0 hPa 0,0 l/m 0 min 0 min 0,0 UV-I 0 W/m 10,3 km/h (2 Bft)
25.02.2013 06:44 0,8 C -0,4 C 100 % 1019,1 hPa 0,0 l/m 0 min 0 min 0,0 UV-I 0 W/m 12,9 km/h (3 Bft)
25.02.2013 06:46 0,8 C -0,4 C 100 % 1019,1 hPa 0,0 l/m 0 min 0 min 0,0 UV-I 0 W/m 7,7 km/h (2 Bft)
25.02.2013 06:48 0,8 C -0,4 C 100 % 1019,1 hPa 0,0 l/m 0 min 0 min 0,0 UV-I 0 W/m 7,7 km/h (2 Bft)
25.02.2013 06:50 0,8 C -0,4 C 100 % 1019,1 hPa 0,0 l/m 0 min 0 min 0,0 UV-I 0 W/m 7,7 km/h (2 Bft)
25.02.2013 06:52 0,8 C -0,4 C 100 % 1019,1 hPa 0,0 l/m 0 min 0 min 0,0 UV-I 0 W/m 10,3 km/h (2 Bft)
25.02.2013 06:54 0,8 C -0,4 C 100 % 1019,1 hPa 0,0 l/m 0 min 0 min 0,0 UV-I 0 W/m 12,9 km/h (3 Bft)
25.02.2013 06:56 0,8 C -0,4 C 100 % 1019,2 hPa 0,0 l/m 0 min 0 min 0,0 UV-I 0 W/m 7,7 km/h (2 Bft)
25.02.2013 06:58 0,8 C -0,4 C 100 % 1019,2 hPa 0,0 l/m 0 min 0 min 0,0 UV-I 0 W/m 12,9 km/h (3 Bft)
25.02.2013 07:00 0,8 C -0,4 C 100 % 1019,2 hPa 0,0 l/m 0 min 0 min 0,0 UV-I 0 W/m 10,3 km/h (2 Bft)
25.02.2013 07:02 0,8 C -0,4 C 100 % 1019,1 hPa 0,0 l/m 0 min 0 min 0,0 UV-I 0 W/m 15,4 km/h (3 Bft)
25.02.2013 07:04 0,8 C -0,4 C 100 % 1019,1 hPa 0,0 l/m 0 min 0 min 0,0 UV-I 0 W/m 10,3 km/h (2 Bft)
25.02.2013 07:06 0,8 C -0,4 C 100 % 1019,1 hPa 0,0 l/m 0 min 0 min 0,0 UV-I 0 W/m 10,3 km/h (2 Bft)
25.02.2013 07:08 0,8 C -0,4 C 100 % 1019,2 hPa 0,0 l/m 0 min 0 min 0,0 UV-I 0 W/m 5,1 km/h (1 Bft)
25.02.2013 07:10 0,8 C -0,4 C 100 % 1019,2 hPa 0,0 l/m 0 min 0 min 0,0 UV-I 0 W/m 7,7 km/h (2 Bft)
25.02.2013 07:12 0,8 C -0,4 C 100 % 1019,2 hPa 0,0 l/m 0 min 0 min 0,0 UV-I 0 W/m 10,3 km/h (2 Bft)
25.02.2013 07:14 0,8 C -0,4 C 100 % 1019,2 hPa 0,0 l/m 0 min 0 min 0,0 UV-I 0 W/m 7,7 km/h (2 Bft)
25.02.2013 07:16 0,8 C -0,4 C 100 % 1019,2 hPa 0,0 l/m 0 min 0 min 0,0 UV-I 0 W/m 12,9 km/h (3 Bft)
25.02.2013 07:18 0,8 C -0,4 C 100 % 1019,1 hPa 0,0 l/m 0 min 0 min 0,0 UV-I 0 W/m 15,4 km/h (3 Bft)
25.02.2013 07:20 0,8 C -0,4 C 100 % 1019,3 hPa 0,0 l/m 0 min 0 min 0,0 UV-I 0 W/m 5,1 km/h (1 Bft)
25.02.2013 07:22 0,8 C -0,4 C 100 % 1019,3 hPa 0,0 l/m 0 min 0 min 0,0 UV-I 0 W/m 7,7 km/h (2 Bft)
25.02.2013 07:24 0,8 C -0,4 C 100 % 1019,3 hPa 0,0 l/m 0 min 0 min 0,0 UV-I 0 W/m 7,7 km/h (2 Bft)
25.02.2013 07:26 0,8 C -0,4 C 100 % 1019,4 hPa 0,0 l/m 0 min 0 min 0,0 UV-I 0 W/m 7,7 km/h (2 Bft)
25.02.2013 07:28 0,8 C -0,4 C 100 % 1019,3 hPa 0,0 l/m 0 min 0 min 0,0 UV-I 0 W/m 10,3 km/h (2 Bft)
25.02.2013 07:30 0,8 C -0,4 C 100 % 1019,4 hPa 0,0 l/m 0 min 0 min 0,0 UV-I 0 W/m 7,7 km/h (2 Bft)
25.02.2013 07:32 0,8 C -0,4 C 100 % 1019,4 hPa 0,0 l/m 0 min 0 min 0,0 UV-I 0 W/m 12,9 km/h (3 Bft)
25.02.2013 07:34 0,8 C -0,4 C 100 % 1019,4 hPa 0,0 l/m 0 min 0 min 0,0 UV-I 0 W/m 10,3 km/h (2 Bft)
25.02.2013 07:36 0,8 C -0,4 C 100 % 1019,4 hPa 0,0 l/m 0 min 0 min 0,0 UV-I 0 W/m 10,3 km/h (2 Bft)
25.02.2013 07:38 0,8 C -0,4 C 100 % 1019,5 hPa 0,0 l/m 0 min 0 min 0,0 UV-I 0 W/m 12,9 km/h (3 Bft)
25.02.2013 07:40 0,8 C -0,4 C 100 % 1019,5 hPa 0,0 l/m 0 min 0 min 0,0 UV-I 0 W/m 15,4 km/h (3 Bft)
25.02.2013 07:42 0,9 C -0,4 C 100 % 1019,5 hPa 0,0 l/m 0 min 0 min 0,0 UV-I 0 W/m 12,9 km/h (3 Bft)
25.02.2013 07:44 0,9 C -0,4 C 100 % 1019,4 hPa 0,0 l/m 0 min 0 min 0,0 UV-I 0 W/m 12,9 km/h (3 Bft)
25.02.2013 07:46 0,9 C -0,4 C 100 % 1019,4 hPa 0,0 l/m 0 min 0 min 0,0 UV-I 0 W/m 5,1 km/h (1 Bft)
25.02.2013 07:48 0,9 C -0,4 C 100 % 1019,3 hPa 0,0 l/m 0 min 0 min 0,0 UV-I 0 W/m 0,0 km/h (0 Bft)
25.02.2013 07:50 0,9 C -0,4 C 100 % 1019,4 hPa 0,0 l/m 0 min 0 min 0,0 UV-I 0 W/m 5,1 km/h (1 Bft)
25.02.2013 07:52 0,9 C -0,4 C 100 % 1019,5 hPa 0,0 l/m 0 min 0 min 0,0 UV-I 0 W/m 7,7 km/h (2 Bft)
25.02.2013 07:54 0,9 C -0,4 C 100 % 1019,5 hPa 0,0 l/m 0 min 0 min 0,0 UV-I 0 W/m 2,6 km/h (1 Bft)
25.02.2013 07:56 0,9 C -0,4 C 100 % 1019,5 hPa 0,0 l/m 0 min 0 min 0,0 UV-I 0 W/m 7,7 km/h (2 Bft)
25.02.2013 07:58 0,9 C -0,4 C 100 % 1019,6 hPa 0,0 l/m 0 min 0 min 0,0 UV-I 5 W/m 7,7 km/h (2 Bft)
25.02.2013 08:00 0,9 C -0,4 C 100 % 1019,4 hPa 0,0 l/m 0 min 0 min 0,0 UV-I 5 W/m 7,7 km/h (2 Bft)
25.02.2013 08:02 0,9 C -0,4 C 100 % 1019,6 hPa 0,0 l/m 0 min 0 min 0,0 UV-I 5 W/m 12,9 km/h (3 Bft)
25.02.2013 08:04 0,9 C -0,4 C 100 % 1019,6 hPa 0,0 l/m 0 min 0 min 0,0 UV-I 7 W/m 2,6 km/h (1 Bft)
25.02.2013 08:06 0,9 C -0,4 C 100 % 1019,6 hPa 0,0 l/m 0 min 0 min 0,0 UV-I 7 W/m 12,9 km/h (3 Bft)
25.02.2013 08:08 0,9 C -0,4 C 100 % 1019,7 hPa 0,0 l/m 0 min 0 min 0,0 UV-I 7 W/m 2,6 km/h (1 Bft)
25.02.2013 08:10 0,9 C -0,4 C 100 % 1019,7 hPa 0,0 l/m 0 min 0 min 0,0 UV-I 7 W/m 10,3 km/h (2 Bft)
25.02.2013 08:12 0,9 C 0,1 C 100 % 1019,8 hPa 0,0 l/m 0 min 0 min 0,0 UV-I 7 W/m 5,1 km/h (1 Bft)
25.02.2013 08:14 0,9 C -0,4 C 100 % 1019,8 hPa 0,0 l/m 0 min 0 min 0,0 UV-I 9 W/m 10,3 km/h (2 Bft)
25.02.2013 08:16 0,9 C 0,1 C 100 % 1019,7 hPa 0,0 l/m 0 min 0 min 0,0 UV-I 11 W/m 0,0 km/h (0 Bft)
25.02.2013 08:18 0,9 C -0,4 C 100 % 1019,7 hPa 0,0 l/m 0 min 0 min 0,0 UV-I 11 W/m 5,1 km/h (1 Bft)
25.02.2013 08:20 0,9 C -0,4 C 100 % 1019,7 hPa 0,0 l/m 0 min 0 min 0,0 UV-I 11 W/m 5,1 km/h (1 Bft)
25.02.2013 08:22 0,9 C 0,1 C 100 % 1019,7 hPa 0,0 l/m 0 min 0 min 0,0 UV-I 11 W/m 7,7 km/h (2 Bft)
25.02.2013 08:24 0,9 C 0,1 C 100 % 1019,9 hPa 0,0 l/m 0 min 0 min 0,0 UV-I 11 W/m 7,7 km/h (2 Bft)
25.02.2013 08:26 0,9 C 0,1 C 100 % 1019,9 hPa 0,0 l/m 0 min 2 min 0,0 UV-I 11 W/m 10,3 km/h (2 Bft)
25.02.2013 08:28 0,9 C -0,4 C 100 % 1019,9 hPa 0,0 l/m 0 min 0 min 0,0 UV-I 11 W/m 7,7 km/h (2 Bft)
25.02.2013 08:30 0,9 C -0,4 C 100 % 1019,9 hPa 0,0 l/m 0 min 0 min 0,0 UV-I 11 W/m 5,1 km/h (1 Bft)
25.02.2013 08:32 0,9 C -0,4 C 100 % 1019,9 hPa 0,0 l/m 0 min 2 min 0,0 UV-I 11 W/m 10,3 km/h (2 Bft)
25.02.2013 08:34 0,9 C 0,1 C 100 % 1019,9 hPa 0,0 l/m 0 min 2 min 0,0 UV-I 11 W/m 10,3 km/h (2 Bft)
25.02.2013 08:36 0,9 C 0,1 C 100 % 1019,7 hPa 0,0 l/m 0 min 2 min 0,0 UV-I 12 W/m 7,7 km/h (2 Bft)
25.02.2013 08:38 0,9 C -0,4 C 100 % 1019,7 hPa 0,0 l/m 0 min 2 min 0,0 UV-I 11 W/m 7,7 km/h (2 Bft)
25.02.2013 08:40 0,9 C 0,1 C 100 % 1019,8 hPa 0,0 l/m 0 min 0 min 0,0 UV-I 9 W/m 7,7 km/h (2 Bft)
25.02.2013 08:42 0,9 C -0,4 C 100 % 1020,0 hPa 0,0 l/m 0 min 0 min 0,0 UV-I 11 W/m 7,7 km/h (2 Bft)
25.02.2013 08:44 0,9 C -0,4 C 100 % 1020,0 hPa 0,0 l/m 0 min 0 min 0,0 UV-I 11 W/m 0,0 km/h (0 Bft)
25.02.2013 08:46 0,9 C -0,4 C 100 % 1020,0 hPa 0,0 l/m 0 min 0 min 0,0 UV-I 11 W/m 7,7 km/h (2 Bft)
25.02.2013 08:48 0,9 C -0,4 C 100 % 1020,0 hPa 0,0 l/m 0 min 0 min 0,0 UV-I 11 W/m 10,3 km/h (2 Bft)
25.02.2013 08:50 0,9 C -0,4 C 100 % 1019,8 hPa 0,0 l/m 0 min 0 min 0,0 UV-I 12 W/m 7,7 km/h (2 Bft)
25.02.2013 08:52 0,9 C -0,4 C 100 % 1019,8 hPa 0,0 l/m 0 min 0 min 0,0 UV-I 12 W/m 10,3 km/h (2 Bft)
25.02.2013 08:54 0,9 C -0,4 C 100 % 1019,9 hPa 0,0 l/m 0 min 0 min 0,0 UV-I 12 W/m 10,3 km/h (2 Bft)
25.02.2013 08:56 0,9 C -0,4 C 100 % 1019,9 hPa 0,0 l/m 0 min 0 min 0,0 UV-I 12 W/m 10,3 km/h (2 Bft)
25.02.2013 08:58 0,9 C 0,1 C 100 % 1019,9 hPa 0,0 l/m 0 min 0 min 0,0 UV-I 14 W/m 10,3 km/h (2 Bft)
25.02.2013 09:00 0,9 C 0,1 C 100 % 1020,0 hPa 0,0 l/m 0 min 0 min 0,0 UV-I 16 W/m 7,7 km/h (2 Bft)
25.02.2013 09:02 1,0 C 0,1 C 99 % 1020,0 hPa 0,0 l/m 0 min 0 min 0,0 UV-I 18 W/m 0,0 km/h (0 Bft)
25.02.2013 09:04 1,0 C 0,1 C 99 % 1020,0 hPa 0,0 l/m 0 min 0 min 0,0 UV-I 19 W/m 7,7 km/h (2 Bft)
25.02.2013 09:06 1,0 C 0,1 C 99 % 1019,9 hPa 0,0 l/m 0 min 0 min 0,0 UV-I 19 W/m 7,7 km/h (2 Bft)
25.02.2013 09:08 1,0 C 0,1 C 99 % 1019,9 hPa 0,0 l/m 0 min 0 min 0,0 UV-I 19 W/m 5,1 km/h (1 Bft)
25.02.2013 09:10 1,0 C 0,1 C 99 % 1019,9 hPa 0,0 l/m 0 min 0 min 0,0 UV-I 19 W/m 7,7 km/h (2 Bft)
25.02.2013 09:12 1,0 C 0,1 C 99 % 1019,9 hPa 0,0 l/m 0 min 0 min 0,0 UV-I 19 W/m 7,7 km/h (2 Bft)
25.02.2013 09:14 1,0 C 0,1 C 99 % 1020,1 hPa 0,0 l/m 0 min 2 min 0,0 UV-I 21 W/m 5,1 km/h (1 Bft)
25.02.2013 09:16 1,0 C 0,1 C 99 % 1020,1 hPa 0,0 l/m 0 min 2 min 0,0 UV-I 25 W/m 10,3 km/h (2 Bft)
25.02.2013 09:18 1,0 C 0,1 C 99 % 1020,2 hPa 0,0 l/m 0 min 2 min 0,0 UV-I 25 W/m 5,1 km/h (1 Bft)
25.02.2013 09:20 1,0 C -0,4 C 99 % 1020,3 hPa 0,0 l/m 0 min 2 min 0,0 UV-I 18 W/m 7,7 km/h (2 Bft)
25.02.2013 09:22 1,0 C -0,4 C 99 % 1020,2 hPa 0,0 l/m 0 min 2 min 0,0 UV-I 18 W/m 10,3 km/h (2 Bft)
25.02.2013 09:24 1,0 C -0,4 C 99 % 1020,2 hPa 0,2 l/m 0 min 2 min 0,0 UV-I 16 W/m 7,7 km/h (2 Bft)
25.02.2013 09:26 1,0 C -0,4 C 99 % 1020,3 hPa 0,0 l/m 0 min 0 min 0,0 UV-I 18 W/m 10,3 km/h (2 Bft)
25.02.2013 09:28 1,0 C -0,4 C 99 % 1020,3 hPa 0,0 l/m 0 min 2 min 0,0 UV-I 21 W/m 10,3 km/h (2 Bft)
25.02.2013 09:30 1,0 C -0,4 C 99 % 1020,3 hPa 0,0 l/m 0 min 2 min 0,0 UV-I 23 W/m 10,3 km/h (2 Bft)
25.02.2013 09:32 1,0 C -0,4 C 99 % 1020,3 hPa 0,0 l/m 0 min 2 min 0,0 UV-I 25 W/m 10,3 km/h (2 Bft)
25.02.2013 09:34 0,9 C -0,4 C 99 % 1020,4 hPa 0,0 l/m 0 min 2 min 0,0 UV-I 21 W/m 10,3 km/h (2 Bft)
25.02.2013 09:36 0,9 C -0,4 C 99 % 1020,4 hPa 0,0 l/m 0 min 2 min 0,0 UV-I 23 W/m 10,3 km/h (2 Bft)
25.02.2013 09:38 0,9 C -0,4 C 99 % 1020,3 hPa 0,0 l/m 0 min 2 min 0,0 UV-I 23 W/m 10,3 km/h (2 Bft)
25.02.2013 09:40 0,9 C -0,4 C 99 % 1020,4 hPa 0,0 l/m 0 min 2 min 0,0 UV-I 21 W/m 7,7 km/h (2 Bft)
25.02.2013 09:42 0,9 C -0,4 C 99 % 1020,4 hPa 0,0 l/m 0 min 2 min 0,0 UV-I 21 W/m 12,9 km/h (3 Bft)
25.02.2013 09:44 0,9 C -0,4 C 99 % 1020,4 hPa 0,0 l/m 0 min 2 min 0,0 UV-I 23 W/m 7,7 km/h (2 Bft)
25.02.2013 09:46 0,9 C -0,4 C 99 % 1020,4 hPa 0,0 l/m 0 min 2 min 0,0 UV-I 21 W/m 10,3 km/h (2 Bft)
25.02.2013 09:48 0,8 C -0,4 C 99 % 1020,4 hPa 0,0 l/m 0 min 2 min 0,0 UV-I 21 W/m 7,7 km/h (2 Bft)
25.02.2013 09:50 0,8 C -0,4 C 99 % 1020,5 hPa 0,0 l/m 0 min 2 min 0,0 UV-I 19 W/m 2,6 km/h (1 Bft)
25.02.2013 09:52 0,8 C -1,0 C 99 % 1020,5 hPa 0,0 l/m 0 min 2 min 0,0 UV-I 19 W/m 5,1 km/h (1 Bft)
25.02.2013 09:54 0,8 C -1,0 C 99 % 1020,5 hPa 0,0 l/m 0 min 2 min 0,0 UV-I 19 W/m 0,0 km/h (0 Bft)
25.02.2013 09:56 0,8 C -1,0 C 99 % 1020,5 hPa 0,0 l/m 0 min 2 min 0,0 UV-I 23 W/m 7,7 km/h (2 Bft)
25.02.2013 09:58 0,8 C -1,0 C 99 % 1020,4 hPa 0,0 l/m 0 min 2 min 0,0 UV-I 25 W/m 10,3 km/h (2 Bft)
25.02.2013 10:00 0,7 C -1,0 C 99 % 1020,4 hPa 0,0 l/m 0 min 2 min 0,0 UV-I 23 W/m 0,0 km/h (0 Bft)
25.02.2013 10:02 0,7 C -0,4 C 99 % 1020,4 hPa 0,0 l/m 0 min 2 min 0,0 UV-I 23 W/m 5,1 km/h (1 Bft)
25.02.2013 10:04 0,7 C -0,4 C 99 % 1020,4 hPa 0,0 l/m 0 min 2 min 0,0 UV-I 23 W/m 7,7 km/h (2 Bft)
25.02.2013 10:06 0,7 C -1,0 C 99 % 1020,4 hPa 0,0 l/m 0 min 2 min 0,0 UV-I 25 W/m 7,7 km/h (2 Bft)
25.02.2013 10:08 0,7 C -0,4 C 99 % 1020,5 hPa 0,0 l/m 0 min 0 min 0,0 UV-I 23 W/m 7,7 km/h (2 Bft)
25.02.2013 10:10 0,7 C -1,0 C 99 % 1020,6 hPa 0,0 l/m 0 min 0 min 0,0 UV-I 21 W/m 2,6 km/h (1 Bft)
25.02.2013 10:12 0,7 C -0,4 C 99 % 1020,5 hPa 0,0 l/m 0 min 0 min 0,0 UV-I 26 W/m 10,3 km/h (2 Bft)
25.02.2013 10:14 0,7 C -0,4 C 99 % 1020,5 hPa 0,2 l/m 0 min 0 min 0,0 UV-I 28 W/m 7,7 km/h (2 Bft)
25.02.2013 10:16 0,7 C -0,4 C 99 % 1020,4 hPa 0,0 l/m 0 min 0 min 0,0 UV-I 26 W/m 7,7 km/h (2 Bft)
25.02.2013 10:18 0,7 C -0,4 C 99 % 1020,4 hPa 0,0 l/m 0 min 0 min 0,0 UV-I 26 W/m 10,3 km/h (2 Bft)
25.02.2013 10:20 0,7 C -0,4 C 99 % 1020,4 hPa 0,0 l/m 0 min 0 min 0,0 UV-I 26 W/m 2,6 km/h (1 Bft)
25.02.2013 10:22 0,7 C -0,4 C 99 % 1020,4 hPa 0,0 l/m 0 min 0 min 0,0 UV-I 30 W/m 7,7 km/h (2 Bft)
25.02.2013 10:24 0,7 C -0,4 C 99 % 1020,5 hPa 0,0 l/m 0 min 0 min 0,0 UV-I 26 W/m 10,3 km/h (2 Bft)
25.02.2013 10:26 0,7 C -0,4 C 99 % 1020,6 hPa 0,0 l/m 0 min 0 min 0,0 UV-I 25 W/m 7,7 km/h (2 Bft)
25.02.2013 10:28 0,7 C -0,4 C 99 % 1020,4 hPa 0,0 l/m 0 min 0 min 0,0 UV-I 26 W/m 7,7 km/h (2 Bft)
25.02.2013 10:30 0,7 C -0,4 C 99 % 1020,4 hPa 0,2 l/m 0 min 0 min 0,0 UV-I 25 W/m 10,3 km/h (2 Bft)
25.02.2013 10:32 0,7 C -0,4 C 99 % 1020,4 hPa 0,0 l/m 0 min 0 min 0,0 UV-I 25 W/m 5,1 km/h (1 Bft)
25.02.2013 10:34 0,7 C -0,4 C 99 % 1020,4 hPa 0,0 l/m 0 min 0 min 0,0 UV-I 25 W/m 5,1 km/h (1 Bft)
25.02.2013 10:36 0,7 C -0,4 C 99 % 1020,4 hPa 0,0 l/m 0 min 0 min 0,0 UV-I 25 W/m 10,3 km/h (2 Bft)
25.02.2013 10:38 0,7 C -0,4 C 99 % 1020,4 hPa 0,0 l/m 0 min 0 min 0,0 UV-I 26 W/m 10,3 km/h (2 Bft)
25.02.2013 10:40 0,7 C -0,4 C 99 % 1020,4 hPa 0,0 l/m 0 min 0 min 0,0 UV-I 26 W/m 7,7 km/h (2 Bft)
25.02.2013 10:42 0,8 C -0,4 C 99 % 1020,7 hPa 0,0 l/m 0 min 0 min 0,0 UV-I 25 W/m 0,0 km/h (0 Bft)
25.02.2013 10:44 0,8 C -0,4 C 99 % 1020,6 hPa 0,0 l/m 0 min 0 min 0,0 UV-I 26 W/m 7,7 km/h (2 Bft)
25.02.2013 10:46 0,8 C -0,4 C 99 % 1020,5 hPa 0,0 l/m 0 min 0 min 0,0 UV-I 26 W/m 12,9 km/h (3 Bft)
25.02.2013 10:48 0,8 C -0,4 C 99 % 1020,5 hPa 0,0 l/m 0 min 0 min 0,0 UV-I 28 W/m 15,4 km/h (3 Bft)
25.02.2013 10:50 0,9 C -0,4 C 99 % 1020,6 hPa 0,0 l/m 0 min 0 min 0,0 UV-I 26 W/m 18,0 km/h (3 Bft)
25.02.2013 10:52 0,9 C -0,4 C 99 % 1020,6 hPa 0,0 l/m 0 min 0 min 0,0 UV-I 30 W/m 15,4 km/h (3 Bft)
25.02.2013 10:54 0,9 C -0,4 C 100 % 1020,7 hPa 0,0 l/m 0 min 0 min 0,0 UV-I 33 W/m 5,1 km/h (1 Bft)
25.02.2013 10:56 0,9 C -0,4 C 99 % 1020,7 hPa 0,0 l/m 0 min 2 min 0,0 UV-I 37 W/m 7,7 km/h (2 Bft)
25.02.2013 10:58 1,0 C -0,4 C 100 % 1020,6 hPa 0,0 l/m 0 min 2 min 0,0 UV-I 44 W/m 10,3 km/h (2 Bft)
25.02.2013 11:00 1,0 C -0,4 C 99 % 1020,7 hPa 0,0 l/m 0 min 2 min 0,0 UV-I 44 W/m 10,3 km/h (2 Bft)
25.02.2013 11:02 1,0 C -0,4 C 99 % 1020,6 hPa 0,2 l/m 0 min 2 min 0,0 UV-I 42 W/m 10,3 km/h (2 Bft)
25.02.2013 11:04 1,0 C -0,4 C 99 % 1020,7 hPa 0,0 l/m 0 min 2 min 0,0 UV-I 47 W/m 12,9 km/h (3 Bft)
25.02.2013 11:06 1,0 C -0,4 C 99 % 1020,6 hPa 0,0 l/m 0 min 2 min 0,0 UV-I 53 W/m 10,3 km/h (2 Bft)
25.02.2013 11:08 1,1 C -0,4 C 99 % 1020,7 hPa 0,0 l/m 0 min 2 min 0,0 UV-I 47 W/m 7,7 km/h (2 Bft)
25.02.2013 11:10 1,1 C -0,4 C 99 % 1020,7 hPa 0,0 l/m 0 min 2 min 0,0 UV-I 47 W/m 15,4 km/h (3 Bft)
25.02.2013 11:12 1,1 C -0,4 C 99 % 1020,7 hPa 0,0 l/m 0 min 2 min 0,0 UV-I 51 W/m 10,3 km/h (2 Bft)
25.02.2013 11:14 1,1 C -0,4 C 99 % 1020,8 hPa 0,0 l/m 0 min 2 min 0,0 UV-I 51 W/m 12,9 km/h (3 Bft)
25.02.2013 11:16 1,1 C -0,4 C 99 % 1020,7 hPa 0,0 l/m 0 min 2 min 0,0 UV-I 44 W/m 12,9 km/h (3 Bft)
25.02.2013 11:18 1,1 C -0,4 C 99 % 1020,7 hPa 0,2 l/m 0 min 2 min 0,0 UV-I 44 W/m 12,9 km/h (3 Bft)
25.02.2013 11:20 1,1 C -0,4 C 99 % 1020,8 hPa 0,0 l/m 0 min 2 min 0,0 UV-I 47 W/m 10,3 km/h (2 Bft)
25.02.2013 11:22 1,0 C -0,4 C 99 % 1020,7 hPa 0,0 l/m 0 min 2 min 0,0 UV-I 44 W/m 12,9 km/h (3 Bft)
25.02.2013 11:24 1,0 C -0,4 C 99 % 1020,8 hPa 0,0 l/m 0 min 2 min 0,0 UV-I 47 W/m 12,9 km/h (3 Bft)
25.02.2013 11:26 1,0 C -0,4 C 99 % 1020,8 hPa 0,0 l/m 0 min 0 min 0,0 UV-I 42 W/m 15,4 km/h (3 Bft)
25.02.2013 11:28 1,0 C -0,4 C 99 % 1020,8 hPa 0,0 l/m 0 min 2 min 0,0 UV-I 44 W/m 15,4 km/h (3 Bft)
25.02.2013 11:30 1,0 C -0,4 C 99 % 1020,8 hPa 0,0 l/m 0 min 2 min 0,0 UV-I 44 W/m 10,3 km/h (2 Bft)
25.02.2013 11:32 1,0 C -0,4 C 99 % 1020,8 hPa 0,0 l/m 0 min 2 min 0,0 UV-I 42 W/m 10,3 km/h (2 Bft)
25.02.2013 11:34 1,0 C -0,4 C 99 % 1020,8 hPa 0,0 l/m 0 min 0 min 0,0 UV-I 39 W/m 7,7 km/h (2 Bft)
25.02.2013 11:36 1,0 C 0,1 C 99 % 1020,9 hPa 0,0 l/m 0 min 0 min 0,0 UV-I 37 W/m 10,3 km/h (2 Bft)
25.02.2013 11:38 1,0 C -0,4 C 99 % 1020,8 hPa 0,0 l/m 0 min 2 min 0,0 UV-I 37 W/m 7,7 km/h (2 Bft)
25.02.2013 11:40 1,0 C -0,4 C 99 % 1020,8 hPa 0,0 l/m 0 min 2 min 0,0 UV-I 39 W/m 10,3 km/h (2 Bft)
25.02.2013 11:42 1,1 C 0,1 C 99 % 1020,8 hPa 0,0 l/m 0 min 2 min 0,0 UV-I 42 W/m 15,4 km/h (3 Bft)
25.02.2013 11:44 1,1 C 0,1 C 99 % 1020,8 hPa 0,0 l/m 0 min 2 min 0,0 UV-I 44 W/m 10,3 km/h (2 Bft)
25.02.2013 11:46 1,1 C 0,1 C 99 % 1020,8 hPa 0,0 l/m 0 min 2 min 0,0 UV-I 46 W/m 10,3 km/h (2 Bft)
25.02.2013 11:48 1,1 C -0,4 C 99 % 1020,8 hPa 0,2 l/m 0 min 2 min 0,0 UV-I 44 W/m 12,9 km/h (3 Bft)
25.02.2013 11:50 1,1 C -0,4 C 99 % 1020,9 hPa 0,0 l/m 0 min 2 min 0,0 UV-I 49 W/m 10,3 km/h (2 Bft)
25.02.2013 11:52 1,1 C -0,4 C 99 % 1020,9 hPa 0,0 l/m 0 min 2 min 0,0 UV-I 49 W/m 7,7 km/h (2 Bft)
25.02.2013 11:54 1,1 C 0,1 C 99 % 1020,9 hPa 0,0 l/m 0 min 2 min 0,0 UV-I 49 W/m 5,1 km/h (1 Bft)
25.02.2013 11:56 1,1 C -0,4 C 99 % 1020,9 hPa 0,0 l/m 0 min 2 min 0,0 UV-I 51 W/m 7,7 km/h (2 Bft)
25.02.2013 11:58 1,1 C -0,4 C 99 % 1020,8 hPa 0,0 l/m 0 min 2 min 0,0 UV-I 47 W/m 10,3 km/h (2 Bft)
25.02.2013 12:00 1,1 C -0,4 C 99 % 1020,8 hPa 0,0 l/m 0 min 2 min 0,0 UV-I 44 W/m 5,1 km/h (1 Bft)
25.02.2013 12:02 1,1 C -0,4 C 99 % 1020,9 hPa 0,0 l/m 0 min 2 min 0,0 UV-I 42 W/m 7,7 km/h (2 Bft)
25.02.2013 12:04 1,1 C -0,4 C 99 % 1020,9 hPa 0,2 l/m 0 min 2 min 0,0 UV-I 44 W/m 12,9 km/h (3 Bft)
25.02.2013 12:06 1,1 C -0,4 C 99 % 1020,9 hPa 0,0 l/m 0 min 2 min 0,0 UV-I 47 W/m 10,3 km/h (2 Bft)
25.02.2013 12:08 1,1 C -0,4 C 99 % 1020,9 hPa 0,0 l/m 0 min 2 min 0,0 UV-I 47 W/m 7,7 km/h (2 Bft)
25.02.2013 12:10 1,1 C 0,1 C 99 % 1020,9 hPa 0,0 l/m 0 min 2 min 0,0 UV-I 49 W/m 5,1 km/h (1 Bft)
25.02.2013 12:12 1,1 C 0,1 C 99 % 1020,9 hPa 0,0 l/m 0 min 2 min 0,0 UV-I 47 W/m 10,3 km/h (2 Bft)
25.02.2013 12:14 1,1 C 0,1 C 99 % 1020,9 hPa 0,0 l/m 0 min 0 min 0,0 UV-I 46 W/m 5,1 km/h (1 Bft)
25.02.2013 12:16 1,2 C 0,1 C 99 % 1020,9 hPa 0,0 l/m 0 min 0 min 0,0 UV-I 42 W/m 7,7 km/h (2 Bft)
25.02.2013 12:18 1,2 C 0,1 C 100 % 1020,9 hPa 0,0 l/m 0 min 2 min 0,0 UV-I 44 W/m 7,7 km/h (2 Bft)
25.02.2013 12:20 1,2 C 0,1 C 99 % 1020,8 hPa 0,0 l/m 0 min 2 min 0,0 UV-I 47 W/m 12,9 km/h (3 Bft)
25.02.2013 12:22 1,2 C 0,1 C 100 % 1020,8 hPa 0,0 l/m 0 min 2 min 0,0 UV-I 51 W/m 12,9 km/h (3 Bft)
25.02.2013 12:24 1,2 C 0,1 C 100 % 1020,8 hPa 0,0 l/m 0 min 2 min 0,0 UV-I 58 W/m 7,7 km/h (2 Bft)
25.02.2013 12:26 1,2 C 0,1 C 100 % 1020,7 hPa 0,2 l/m 0 min 2 min 0,0 UV-I 56 W/m 7,7 km/h (2 Bft)
25.02.2013 12:28 1,2 C 0,1 C 100 % 1020,7 hPa 0,0 l/m 0 min 2 min 0,0 UV-I 58 W/m 7,7 km/h (2 Bft)
25.02.2013 12:30 1,2 C 0,1 C 100 % 1020,8 hPa 0,0 l/m 0 min 0 min 0,0 UV-I 54 W/m 7,7 km/h (2 Bft)
25.02.2013 12:32 1,2 C 0,1 C 100 % 1020,8 hPa 0,0 l/m 0 min 0 min 0,0 UV-I 51 W/m 12,9 km/h (3 Bft)
25.02.2013 12:34 1,2 C 0,1 C 100 % 1020,8 hPa 0,0 l/m 0 min 2 min 0,0 UV-I 49 W/m 10,3 km/h (2 Bft)
25.02.2013 12:36 1,3 C 0,1 C 100 % 1020,9 hPa 0,0 l/m 0 min 2 min 0,0 UV-I 44 W/m 7,7 km/h (2 Bft)
25.02.2013 12:38 1,3 C 0,1 C 100 % 1020,9 hPa 0,0 l/m 0 min 2 min 0,0 UV-I 37 W/m 12,9 km/h (3 Bft)
25.02.2013 12:40 1,3 C 0,1 C 100 % 1020,9 hPa 0,0 l/m 0 min 2 min 0,0 UV-I 37 W/m 7,7 km/h (2 Bft)
25.02.2013 12:42 1,3 C 0,1 C 100 % 1020,9 hPa 0,0 l/m 0 min 2 min 0,0 UV-I 39 W/m 10,3 km/h (2 Bft)
25.02.2013 12:44 1,3 C 0,1 C 100 % 1020,8 hPa 0,2 l/m 0 min 2 min 0,0 UV-I 39 W/m 10,3 km/h (2 Bft)
25.02.2013 12:46 1,3 C 0,1 C 99 % 1020,8 hPa 0,0 l/m 0 min 2 min 0,0 UV-I 42 W/m 7,7 km/h (2 Bft)
25.02.2013 12:48 1,3 C 0,1 C 99 % 1020,8 hPa 0,0 l/m 0 min 2 min 0,0 UV-I 40 W/m 10,3 km/h (2 Bft)
25.02.2013 12:50 1,3 C -0,4 C 99 % 1020,8 hPa 0,0 l/m 0 min 2 min 0,0 UV-I 33 W/m 10,3 km/h (2 Bft)
25.02.2013 12:52 1,3 C -0,4 C 99 % 1020,8 hPa 0,0 l/m 0 min 2 min 0,0 UV-I 33 W/m 10,3 km/h (2 Bft)
25.02.2013 12:54 1,3 C -0,4 C 99 % 1020,8 hPa 0,0 l/m 0 min 2 min 0,0 UV-I 35 W/m 15,4 km/h (3 Bft)
25.02.2013 12:56 1,2 C -0,4 C 99 % 1020,7 hPa 0,2 l/m 0 min 2 min 0,0 UV-I 40 W/m 12,9 km/h (3 Bft)
25.02.2013 12:58 1,2 C -0,4 C 99 % 1020,7 hPa 0,0 l/m 0 min 2 min 0,0 UV-I 46 W/m 12,9 km/h (3 Bft)
25.02.2013 13:00 1,2 C 0,1 C 99 % 1020,7 hPa 0,0 l/m 0 min 2 min 0,0 UV-I 42 W/m 12,9 km/h (3 Bft)
25.02.2013 13:02 1,2 C -0,4 C 99 % 1020,7 hPa 0,0 l/m 0 min 2 min 0,0 UV-I 47 W/m 10,3 km/h (2 Bft)
25.02.2013 13:04 1,2 C -0,4 C 99 % 1020,6 hPa 0,0 l/m 0 min 2 min 0,0 UV-I 51 W/m 10,3 km/h (2 Bft)
25.02.2013 13:06 1,2 C -0,4 C 99 % 1020,7 hPa 0,0 l/m 0 min 2 min 0,0 UV-I 56 W/m 5,1 km/h (1 Bft)
25.02.2013 13:08 1,2 C -0,4 C 99 % 1020,7 hPa 0,0 l/m 0 min 2 min 0,0 UV-I 53 W/m 12,9 km/h (3 Bft)
25.02.2013 13:10 1,2 C -0,4 C 99 % 1020,7 hPa 0,2 l/m 0 min 2 min 0,0 UV-I 56 W/m 10,3 km/h (2 Bft)
25.02.2013 13:12 1,2 C -0,4 C 99 % 1020,7 hPa 0,0 l/m 0 min 2 min 0,0 UV-I 56 W/m 12,9 km/h (3 Bft)
25.02.2013 13:14 1,2 C 0,1 C 99 % 1020,6 hPa 0,0 l/m 0 min 2 min 0,0 UV-I 56 W/m 10,3 km/h (2 Bft)
25.02.2013 13:16 1,2 C 0,1 C 99 % 1020,6 hPa 0,0 l/m 0 min 2 min 0,0 UV-I 53 W/m 15,4 km/h (3 Bft)
25.02.2013 13:18 1,2 C 0,1 C 99 % 1020,6 hPa 0,0 l/m 0 min 2 min 0,0 UV-I 53 W/m 12,9 km/h (3 Bft)
25.02.2013 13:20 1,2 C 0,1 C 99 % 1020,6 hPa 0,0 l/m 0 min 2 min 0,0 UV-I 62 W/m 12,9 km/h (3 Bft)
25.02.2013 13:22 1,2 C 0,1 C 99 % 1020,6 hPa 0,0 l/m 0 min 2 min 0,0 UV-I 63 W/m 18,0 km/h (3 Bft)
25.02.2013 13:24 1,2 C 0,1 C 100 % 1020,6 hPa 0,0 l/m 0 min 0 min 0,0 UV-I 63 W/m 10,3 km/h (2 Bft)
25.02.2013 13:26 1,2 C 0,1 C 100 % 1020,6 hPa 0,0 l/m 0 min 0 min 0,0 UV-I 62 W/m 10,3 km/h (2 Bft)
25.02.2013 13:28 1,3 C 0,1 C 100 % 1020,7 hPa 0,0 l/m 0 min 2 min 0,0 UV-I 53 W/m 18,0 km/h (3 Bft)
25.02.2013 13:30 1,3 C 0,1 C 100 % 1020,6 hPa 0,0 l/m 0 min 2 min 0,0 UV-I 53 W/m 10,3 km/h (2 Bft)
25.02.2013 13:32 1,3 C 0,1 C 100 % 1020,6 hPa 0,0 l/m 0 min 2 min 0,0 UV-I 51 W/m 10,3 km/h (2 Bft)
25.02.2013 13:34 1,3 C 0,1 C 99 % 1020,6 hPa 0,0 l/m 0 min 2 min 0,0 UV-I 46 W/m 12,9 km/h (3 Bft)
25.02.2013 13:36 1,3 C 0,1 C 99 % 1020,6 hPa 0,0 l/m 0 min 2 min 0,0 UV-I 44 W/m 15,4 km/h (3 Bft)
25.02.2013 13:38 1,3 C 0,1 C 99 % 1020,6 hPa 0,0 l/m 0 min 2 min 0,0 UV-I 40 W/m 10,3 km/h (2 Bft)
25.02.2013 13:40 1,3 C 0,1 C 99 % 1020,6 hPa 0,0 l/m 0 min 2 min 0,0 UV-I 40 W/m 10,3 km/h (2 Bft)
25.02.2013 13:42 1,3 C 0,1 C 99 % 1020,6 hPa 0,2 l/m 0 min 2 min 0,0 UV-I 35 W/m 12,9 km/h (3 Bft)
25.02.2013 13:44 1,3 C 0,1 C 99 % 1020,6 hPa 0,0 l/m 0 min 2 min 0,0 UV-I 33 W/m 10,3 km/h (2 Bft)
25.02.2013 13:46 1,3 C 0,1 C 99 % 1020,6 hPa 0,0 l/m 0 min 2 min 0,0 UV-I 35 W/m 12,9 km/h (3 Bft)
25.02.2013 13:48 1,3 C 0,1 C 99 % 1020,6 hPa 0,0 l/m 0 min 2 min 0,0 UV-I 35 W/m 15,4 km/h (3 Bft)
25.02.2013 13:50 1,3 C 0,1 C 99 % 1020,7 hPa 0,0 l/m 0 min 2 min 0,0 UV-I 39 W/m 15,4 km/h (3 Bft)
25.02.2013 13:52 1,3 C 0,1 C 99 % 1020,6 hPa 0,0 l/m 0 min 2 min 0,0 UV-I 40 W/m 15,4 km/h (3 Bft)
25.02.2013 13:54 1,3 C 0,1 C 99 % 1020,7 hPa 0,0 l/m 0 min 2 min 0,0 UV-I 40 W/m 12,9 km/h (3 Bft)
25.02.2013 13:56 1,3 C 0,1 C 99 % 1020,6 hPa 0,0 l/m 0 min 2 min 0,0 UV-I 39 W/m 15,4 km/h (3 Bft)
25.02.2013 13:58 1,3 C 0,1 C 100 % 1020,7 hPa 0,0 l/m 0 min 2 min 0,0 UV-I 40 W/m 10,3 km/h (2 Bft)
25.02.2013 14:00 1,3 C 0,1 C 100 % 1020,7 hPa 0,2 l/m 0 min 2 min 0,0 UV-I 37 W/m 10,3 km/h (2 Bft)
25.02.2013 14:02 1,3 C 0,1 C 99 % 1020,7 hPa 0,0 l/m 0 min 2 min 0,0 UV-I 35 W/m 18,0 km/h (3 Bft)
25.02.2013 14:04 1,3 C 0,1 C 99 % 1020,7 hPa 0,0 l/m 0 min 2 min 0,0 UV-I 37 W/m 12,9 km/h (3 Bft)
25.02.2013 14:06 1,3 C 0,1 C 99 % 1020,8 hPa 0,0 l/m 0 min 2 min 0,0 UV-I 37 W/m 12,9 km/h (3 Bft)
25.02.2013 14:08 1,3 C 0,1 C 99 % 1020,8 hPa 0,0 l/m 0 min 2 min 0,0 UV-I 53 W/m 15,4 km/h (3 Bft)
25.02.2013 14:10 1,3 C 0,1 C 99 % 1020,7 hPa 0,0 l/m 0 min 2 min 0,0 UV-I 47 W/m 15,4 km/h (3 Bft)
25.02.2013 14:12 1,3 C 0,1 C 99 % 1020,7 hPa 0,0 l/m 0 min 2 min 0,0 UV-I 56 W/m 12,9 km/h (3 Bft)
25.02.2013 14:14 1,3 C 0,1 C 99 % 1020,6 hPa 0,0 l/m 0 min 2 min 0,0 UV-I 53 W/m 20,6 km/h (4 Bft)
25.02.2013 14:16 1,3 C 0,1 C 99 % 1020,7 hPa 0,0 l/m 0 min 2 min 0,0 UV-I 53 W/m 20,6 km/h (4 Bft)
25.02.2013 14:18 1,3 C 0,1 C 99 % 1020,6 hPa 0,0 l/m 0 min 2 min 0,0 UV-I 49 W/m 12,9 km/h (3 Bft)
25.02.2013 14:20 1,3 C 0,1 C 99 % 1020,7 hPa 0,2 l/m 0 min 2 min 0,0 UV-I 49 W/m 10,3 km/h (2 Bft)
25.02.2013 14:22 1,2 C 0,1 C 99 % 1020,7 hPa 0,0 l/m 0 min 2 min 0,0 UV-I 53 W/m 10,3 km/h (2 Bft)
25.02.2013 14:24 1,2 C 0,1 C 99 % 1020,8 hPa 0,0 l/m 0 min 2 min 0,0 UV-I 44 W/m 10,3 km/h (2 Bft)
25.02.2013 14:26 1,2 C 0,1 C 99 % 1020,8 hPa 0,0 l/m 0 min 2 min 0,0 UV-I 47 W/m 10,3 km/h (2 Bft)
25.02.2013 14:28 1,2 C 0,1 C 99 % 1020,7 hPa 0,0 l/m 0 min 2 min 0,0 UV-I 51 W/m 7,7 km/h (2 Bft)
25.02.2013 14:30 1,2 C 0,1 C 99 % 1020,7 hPa 0,0 l/m 0 min 2 min 0,0 UV-I 46 W/m 5,1 km/h (1 Bft)
25.02.2013 14:32 1,2 C -0,4 C 99 % 1020,7 hPa 0,2 l/m 0 min 2 min 0,0 UV-I 47 W/m 15,4 km/h (3 Bft)
25.02.2013 14:34 1,2 C 0,1 C 99 % 1020,7 hPa 0,0 l/m 0 min 2 min 0,0 UV-I 44 W/m 12,9 km/h (3 Bft)
25.02.2013 14:36 1,2 C 0,1 C 99 % 1020,7 hPa 0,0 l/m 0 min 2 min 0,0 UV-I 40 W/m 7,7 km/h (2 Bft)
25.02.2013 14:38 1,2 C -0,4 C 99 % 1020,7 hPa 0,0 l/m 0 min 2 min 0,0 UV-I 37 W/m 10,3 km/h (2 Bft)
25.02.2013 14:40 1,2 C -0,4 C 99 % 1020,8 hPa 0,0 l/m 0 min 2 min 0,0 UV-I 47 W/m 10,3 km/h (2 Bft)
25.02.2013 14:42 1,1 C 0,1 C 99 % 1020,8 hPa 0,0 l/m 0 min 2 min 0,0 UV-I 49 W/m 10,3 km/h (2 Bft)
25.02.2013 14:44 1,1 C -0,4 C 99 % 1020,7 hPa 0,0 l/m 0 min 2 min 0,0 UV-I 49 W/m 15,4 km/h (3 Bft)
25.02.2013 14:46 1,1 C -0,4 C 99 % 1020,6 hPa 0,0 l/m 0 min 2 min 0,0 UV-I 46 W/m 10,3 km/h (2 Bft)
25.02.2013 14:48 1,1 C -0,4 C 99 % 1020,6 hPa 0,2 l/m 0 min 2 min 0,0 UV-I 47 W/m 10,3 km/h (2 Bft)
25.02.2013 14:50 1,1 C -0,4 C 99 % 1020,6 hPa 0,0 l/m 0 min 2 min 0,0 UV-I 47 W/m 7,7 km/h (2 Bft)
25.02.2013 14:52 1,1 C -0,4 C 99 % 1020,7 hPa 0,0 l/m 0 min 2 min 0,0 UV-I 42 W/m 10,3 km/h (2 Bft)
25.02.2013 14:54 1,1 C -0,4 C 99 % 1020,7 hPa 0,0 l/m 0 min 2 min 0,0 UV-I 40 W/m 2,6 km/h (1 Bft)
25.02.2013 14:56 1,0 C -0,4 C 99 % 1020,8 hPa 0,0 l/m 0 min 2 min 0,0 UV-I 44 W/m 7,7 km/h (2 Bft)
25.02.2013 14:58 1,0 C -0,4 C 99 % 1020,8 hPa 0,0 l/m 0 min 2 min 0,0 UV-I 44 W/m 10,3 km/h (2 Bft)
25.02.2013 15:00 1,0 C -0,4 C 99 % 1020,8 hPa 0,0 l/m 0 min 2 min 0,0 UV-I 44 W/m 7,7 km/h (2 Bft)
25.02.2013 15:02 0,9 C -0,4 C 99 % 1020,7 hPa 0,0 l/m 0 min 2 min 0,0 UV-I 44 W/m 7,7 km/h (2 Bft)
25.02.2013 15:04 0,9 C -0,4 C 99 % 1020,8 hPa 0,0 l/m 0 min 2 min 0,0 UV-I 47 W/m 10,3 km/h (2 Bft)
25.02.2013 15:06 0,9 C -0,4 C 99 % 1020,7 hPa 0,0 l/m 0 min 2 min 0,0 UV-I 44 W/m 0,0 km/h (0 Bft)
25.02.2013 15:08 0,9 C -0,4 C 99 % 1020,7 hPa 0,2 l/m 0 min 2 min 0,0 UV-I 46 W/m 0,0 km/h (0 Bft)
25.02.2013 15:10 0,8 C -0,4 C 99 % 1020,7 hPa 0,0 l/m 0 min 2 min 0,0 UV-I 42 W/m 12,9 km/h (3 Bft)
25.02.2013 15:12 0,8 C -0,4 C 99 % 1020,7 hPa 0,0 l/m 0 min 2 min 0,0 UV-I 42 W/m 7,7 km/h (2 Bft)
25.02.2013 15:14 0,8 C -0,4 C 99 % 1020,8 hPa 0,0 l/m 0 min 2 min 0,0 UV-I 40 W/m 7,7 km/h (2 Bft)
25.02.2013 15:16 0,8 C -0,4 C 99 % 1020,8 hPa 0,0 l/m 0 min 2 min 0,0 UV-I 40 W/m 7,7 km/h (2 Bft)
25.02.2013 15:18 0,8 C -0,4 C 99 % 1020,7 hPa 0,0 l/m 0 min 2 min 0,0 UV-I 39 W/m 7,7 km/h (2 Bft)
25.02.2013 15:20 0,7 C -0,4 C 99 % 1020,8 hPa 0,0 l/m 0 min 2 min 0,0 UV-I 33 W/m 5,1 km/h (1 Bft)
25.02.2013 15:22 0,7 C -0,4 C 99 % 1020,8 hPa 0,0 l/m 0 min 2 min 0,0 UV-I 39 W/m 5,1 km/h (1 Bft)
25.02.2013 15:24 0,7 C -0,4 C 99 % 1020,7 hPa 0,0 l/m 0 min 2 min 0,0 UV-I 40 W/m 7,7 km/h (2 Bft)
25.02.2013 15:26 0,7 C -0,4 C 99 % 1020,8 hPa 0,0 l/m 0 min 2 min 0,0 UV-I 40 W/m 5,1 km/h (1 Bft)
25.02.2013 15:28 0,7 C -0,4 C 99 % 1020,9 hPa 0,2 l/m 0 min 2 min 0,0 UV-I 39 W/m 0,0 km/h (0 Bft)
25.02.2013 15:30 0,7 C -1,0 C 99 % 1020,9 hPa 0,0 l/m 0 min 2 min 0,0 UV-I 28 W/m 7,7 km/h (2 Bft)
25.02.2013 15:32 0,7 C -1,0 C 99 % 1020,9 hPa 0,0 l/m 0 min 2 min 0,0 UV-I 30 W/m 7,7 km/h (2 Bft)
25.02.2013 15:34 0,7 C -1,0 C 99 % 1020,9 hPa 0,0 l/m 0 min 2 min 0,0 UV-I 28 W/m 10,3 km/h (2 Bft)
25.02.2013 15:36 0,6 C -1,0 C 99 % 1021,0 hPa 0,0 l/m 0 min 2 min 0,0 UV-I 19 W/m 7,7 km/h (2 Bft)
25.02.2013 15:38 0,6 C -1,0 C 99 % 1021,0 hPa 0,0 l/m 0 min 2 min 0,0 UV-I 18 W/m 7,7 km/h (2 Bft)
25.02.2013 15:40 0,6 C -1,0 C 99 % 1021,0 hPa 0,0 l/m 0 min 2 min 0,0 UV-I 18 W/m 7,7 km/h (2 Bft)
25.02.2013 15:42 0,6 C -0,4 C 99 % 1021,0 hPa 0,0 l/m 0 min 2 min 0,0 UV-I 19 W/m 10,3 km/h (2 Bft)
25.02.2013 15:44 0,6 C -0,4 C 99 % 1021,0 hPa 0,0 l/m 0 min 2 min 0,0 UV-I 21 W/m 7,7 km/h (2 Bft)
25.02.2013 15:46 0,6 C -0,4 C 99 % 1021,0 hPa 0,0 l/m 0 min 0 min 0,0 UV-I 21 W/m 2,6 km/h (1 Bft)
25.02.2013 15:48 0,6 C -0,4 C 99 % 1021,0 hPa 0,0 l/m 0 min 0 min 0,0 UV-I 18 W/m 5,1 km/h (1 Bft)
25.02.2013 15:50 0,6 C -0,4 C 99 % 1021,0 hPa 0,2 l/m 0 min 0 min 0,0 UV-I 19 W/m 7,7 km/h (2 Bft)
25.02.2013 15:52 0,6 C -0,4 C 99 % 1021,0 hPa 0,0 l/m 0 min 0 min 0,0 UV-I 19 W/m 2,6 km/h (1 Bft)
25.02.2013 15:54 0,6 C -0,4 C 99 % 1021,0 hPa 0,0 l/m 0 min 0 min 0,0 UV-I 19 W/m 7,7 km/h (2 Bft)
25.02.2013 15:56 0,6 C -0,4 C 99 % 1021,0 hPa 0,0 l/m 0 min 2 min 0,0 UV-I 19 W/m 2,6 km/h (1 Bft)
25.02.2013 15:58 0,6 C -0,4 C 99 % 1021,0 hPa 0,0 l/m 0 min 2 min 0,0 UV-I 19 W/m 2,6 km/h (1 Bft)
25.02.2013 16:00 0,6 C -0,4 C 99 % 1021,1 hPa 0,0 l/m 0 min 2 min 0,0 UV-I 18 W/m 7,7 km/h (2 Bft)
25.02.2013 16:02 0,6 C -0,4 C 99 % 1021,0 hPa 0,0 l/m 0 min 2 min 0,0 UV-I 18 W/m 2,6 km/h (1 Bft)
25.02.2013 16:04 0,6 C -0,4 C 100 % 1021,1 hPa 0,0 l/m 0 min 2 min 0,0 UV-I 16 W/m 5,1 km/h (1 Bft)
25.02.2013 16:06 0,7 C -0,4 C 100 % 1021,1 hPa 0,0 l/m 0 min 2 min 0,0 UV-I 16 W/m 7,7 km/h (2 Bft)
25.02.2013 16:08 0,7 C -0,4 C 100 % 1021,1 hPa 0,0 l/m 0 min 2 min 0,0 UV-I 14 W/m 5,1 km/h (1 Bft)
25.02.2013 16:10 0,7 C -0,4 C 100 % 1021,1 hPa 0,0 l/m 0 min 2 min 0,0 UV-I 14 W/m 7,7 km/h (2 Bft)
25.02.2013 16:12 0,7 C -0,4 C 100 % 1021,1 hPa 0,0 l/m 0 min 2 min 0,0 UV-I 16 W/m 5,1 km/h (1 Bft)
25.02.2013 16:14 0,7 C -0,4 C 100 % 1021,1 hPa 0,0 l/m 0 min 2 min 0,0 UV-I 14 W/m 10,3 km/h (2 Bft)
25.02.2013 16:16 0,7 C -0,4 C 100 % 1021,1 hPa 0,2 l/m 0 min 2 min 0,0 UV-I 12 W/m 7,7 km/h (2 Bft)
25.02.2013 16:18 0,7 C -0,4 C 100 % 1021,2 hPa 0,0 l/m 0 min 2 min 0,0 UV-I 12 W/m 5,1 km/h (1 Bft)
25.02.2013 16:20 0,7 C -0,4 C 99 % 1021,2 hPa 0,0 l/m 0 min 2 min 0,0 UV-I 12 W/m 10,3 km/h (2 Bft)
25.02.2013 16:22 0,7 C -0,4 C 99 % 1021,2 hPa 0,0 l/m 0 min 2 min 0,0 UV-I 12 W/m 7,7 km/h (2 Bft)
25.02.2013 16:24 0,8 C -0,4 C 99 % 1021,2 hPa 0,0 l/m 0 min 2 min 0,0 UV-I 11 W/m 7,7 km/h (2 Bft)
25.02.2013 16:26 0,8 C -0,4 C 99 % 1021,3 hPa 0,0 l/m 0 min 2 min 0,0 UV-I 11 W/m 7,7 km/h (2 Bft)
25.02.2013 16:28 0,8 C -0,4 C 99 % 1021,3 hPa 0,0 l/m 0 min 2 min 0,0 UV-I 9 W/m 7,7 km/h (2 Bft)
25.02.2013 16:30 0,8 C -0,4 C 100 % 1021,3 hPa 0,0 l/m 0 min 2 min 0,0 UV-I 9 W/m 10,3 km/h (2 Bft)
25.02.2013 16:32 0,8 C -0,4 C 100 % 1021,3 hPa 0,0 l/m 0 min 2 min 0,0 UV-I 9 W/m 2,6 km/h (1 Bft)
25.02.2013 16:34 0,8 C -0,4 C 100 % 1021,3 hPa 0,2 l/m 0 min 2 min 0,0 UV-I 9 W/m 2,6 km/h (1 Bft)
25.02.2013 16:36 0,9 C -0,4 C 100 % 1021,3 hPa 0,0 l/m 0 min 2 min 0,0 UV-I 7 W/m 2,6 km/h (1 Bft)
25.02.2013 16:38 0,9 C -0,4 C 100 % 1021,3 hPa 0,0 l/m 0 min 2 min 0,0 UV-I 7 W/m 5,1 km/h (1 Bft)
25.02.2013 16:40 0,9 C -0,4 C 100 % 1021,4 hPa 0,0 l/m 0 min 2 min 0,0 UV-I 7 W/m 7,7 km/h (2 Bft)
25.02.2013 16:42 0,9 C -0,4 C 100 % 1021,3 hPa 0,0 l/m 0 min 2 min 0,0 UV-I 7 W/m 0,0 km/h (0 Bft)
25.02.2013 16:44 0,9 C -0,4 C 100 % 1021,3 hPa 0,0 l/m 0 min 2 min 0,0 UV-I 9 W/m 0,0 km/h (0 Bft)
25.02.2013 16:46 0,9 C -0,4 C 100 % 1021,3 hPa 0,0 l/m 0 min 2 min 0,0 UV-I 7 W/m 7,7 km/h (2 Bft)
25.02.2013 16:48 1,0 C -0,4 C 100 % 1021,4 hPa 0,0 l/m 0 min 2 min 0,0 UV-I 7 W/m 5,1 km/h (1 Bft)
25.02.2013 16:50 1,0 C -0,4 C 100 % 1021,3 hPa 0,0 l/m 0 min 2 min 0,0 UV-I 7 W/m 5,1 km/h (1 Bft)
25.02.2013 16:52 1,1 C -0,4 C 100 % 1021,3 hPa 0,0 l/m 0 min 2 min 0,0 UV-I 5 W/m 7,7 km/h (2 Bft)
25.02.2013 16:54 1,1 C -0,4 C 100 % 1021,4 hPa 0,0 l/m 0 min 2 min 0,0 UV-I 7 W/m 7,7 km/h (2 Bft)
25.02.2013 16:56 1,1 C -0,4 C 100 % 1021,4 hPa 0,0 l/m 0 min 2 min 0,0 UV-I 5 W/m 2,6 km/h (1 Bft)
25.02.2013 16:58 1,1 C -0,4 C 100 % 1021,3 hPa 0,0 l/m 0 min 2 min 0,0 UV-I 5 W/m 0,0 km/h (0 Bft)
25.02.2013 17:00 1,2 C 0,1 C 100 % 1021,3 hPa 0,2 l/m 0 min 2 min 0,0 UV-I 5 W/m 5,1 km/h (1 Bft)
25.02.2013 17:02 1,2 C 0,1 C 100 % 1021,4 hPa 0,0 l/m 0 min 2 min 0,0 UV-I 5 W/m 0,0 km/h (0 Bft)
25.02.2013 17:04 1,2 C 0,1 C 100 % 1021,4 hPa 0,0 l/m 0 min 2 min 0,0 UV-I 5 W/m 5,1 km/h (1 Bft)
25.02.2013 17:06 1,2 C 0,1 C 100 % 1021,4 hPa 0,0 l/m 0 min 2 min 0,0 UV-I 5 W/m 0,0 km/h (0 Bft)
25.02.2013 17:08 1,2 C 0,1 C 100 % 1021,4 hPa 0,0 l/m 0 min 2 min 0,0 UV-I 5 W/m 0,0 km/h (0 Bft)
25.02.2013 17:10 1,2 C 0,1 C 100 % 1021,5 hPa 0,0 l/m 0 min 2 min 0,0 UV-I 5 W/m 0,0 km/h (0 Bft)
25.02.2013 17:12 1,2 C 0,1 C 100 % 1021,5 hPa 0,0 l/m 0 min 2 min 0,0 UV-I 0 W/m 2,6 km/h (1 Bft)
25.02.2013 17:14 1,2 C 0,1 C 100 % 1021,4 hPa 0,0 l/m 0 min 0 min 0,0 UV-I 5 W/m 5,1 km/h (1 Bft)
25.02.2013 17:16 1,3 C 0,1 C 100 % 1021,5 hPa 0,0 l/m 0 min 2 min 0,0 UV-I 0 W/m 0,0 km/h (0 Bft)
25.02.2013 17:18 1,3 C 0,1 C 100 % 1021,5 hPa 0,0 l/m 0 min 2 min 0,0 UV-I 0 W/m 0,0 km/h (0 Bft)
25.02.2013 17:20 1,3 C 0,1 C 100 % 1021,4 hPa 0,0 l/m 0 min 2 min 0,0 UV-I 5 W/m 2,6 km/h (1 Bft)
25.02.2013 17:22 1,3 C 0,1 C 100 % 1021,5 hPa 0,0 l/m 0 min 2 min 0,0 UV-I 5 W/m 12,9 km/h (3 Bft)
25.02.2013 17:24 1,3 C 0,1 C 100 % 1021,5 hPa 0,0 l/m 0 min 0 min 0,0 UV-I 0 W/m 7,7 km/h (2 Bft)
25.02.2013 17:26 1,3 C 0,1 C 100 % 1021,5 hPa 0,0 l/m 0 min 2 min 0,0 UV-I 0 W/m 5,1 km/h (1 Bft)
25.02.2013 17:28 1,3 C 0,1 C 100 % 1021,5 hPa 0,0 l/m 0 min 2 min 0,0 UV-I 0 W/m 5,1 km/h (1 Bft)
25.02.2013 17:30 1,3 C 0,1 C 100 % 1021,5 hPa 0,0 l/m 0 min 0 min 0,0 UV-I 0 W/m 10,3 km/h (2 Bft)
25.02.2013 17:32 1,3 C 0,1 C 100 % 1021,5 hPa 0,0 l/m 0 min 2 min 0,0 UV-I 0 W/m 2,6 km/h (1 Bft)
25.02.2013 17:34 1,3 C 0,1 C 100 % 1021,5 hPa 0,0 l/m 0 min 2 min 0,0 UV-I 0 W/m 5,1 km/h (1 Bft)
25.02.2013 17:36 1,3 C 0,1 C 100 % 1021,5 hPa 0,0 l/m 0 min 2 min 0,0 UV-I 0 W/m 7,7 km/h (2 Bft)
25.02.2013 17:38 1,3 C 0,1 C 100 % 1021,5 hPa 0,0 l/m 0 min 2 min 0,0 UV-I 0 W/m 2,6 km/h (1 Bft)
25.02.2013 17:40 1,3 C 0,1 C 100 % 1021,5 hPa 0,0 l/m 0 min 0 min 0,0 UV-I 0 W/m 7,7 km/h (2 Bft)
25.02.2013 17:42 1,3 C 0,1 C 100 % 1021,5 hPa 0,0 l/m 0 min 2 min 0,0 UV-I 0 W/m 5,1 km/h (1 Bft)
25.02.2013 17:44 1,3 C 0,1 C 100 % 1021,5 hPa 0,0 l/m 0 min 2 min 0,0 UV-I 0 W/m 2,6 km/h (1 Bft)
25.02.2013 17:46 1,3 C 0,1 C 100 % 1021,5 hPa 0,0 l/m 0 min 2 min 0,0 UV-I 0 W/m 2,6 km/h (1 Bft)
25.02.2013 17:48 1,3 C 0,1 C 100 % 1021,5 hPa 0,0 l/m 0 min 2 min 0,0 UV-I 0 W/m 0,0 km/h (0 Bft)
25.02.2013 17:50 1,3 C 0,1 C 100 % 1021,5 hPa 0,0 l/m 0 min 2 min 0,0 UV-I 0 W/m 15,4 km/h (3 Bft)
25.02.2013 17:52 1,3 C 0,1 C 100 % 1021,5 hPa 0,0 l/m 0 min 2 min 0,0 UV-I 0 W/m 7,7 km/h (2 Bft)
25.02.2013 17:54 1,3 C 0,1 C 100 % 1021,5 hPa 0,0 l/m 0 min 0 min 0,0 UV-I 0 W/m 7,7 km/h (2 Bft)
25.02.2013 17:56 1,4 C 0,1 C 100 % 1021,5 hPa 0,0 l/m 0 min 2 min 0,0 UV-I 0 W/m 5,1 km/h (1 Bft)
25.02.2013 17:58 1,4 C 0,1 C 100 % 1021,5 hPa 0,0 l/m 0 min 2 min 0,0 UV-I 0 W/m 2,6 km/h (1 Bft)
25.02.2013 18:00 1,4 C 0,1 C 100 % 1021,5 hPa 0,0 l/m 0 min 0 min 0,0 UV-I 0 W/m 5,1 km/h (1 Bft)
25.02.2013 18:02 1,4 C 0,1 C 100 % 1021,5 hPa 0,0 l/m 0 min 0 min 0,0 UV-I 0 W/m 2,6 km/h (1 Bft)
25.02.2013 18:04 1,3 C 0,1 C 100 % 1021,5 hPa 0,2 l/m 0 min 0 min 0,0 UV-I 0 W/m 7,7 km/h (2 Bft)
25.02.2013 18:06 1,3 C 0,1 C 100 % 1021,5 hPa 0,0 l/m 0 min 0 min 0,0 UV-I 0 W/m 7,7 km/h (2 Bft)
25.02.2013 18:08 1,4 C 0,1 C 100 % 1021,5 hPa 0,0 l/m 0 min 2 min 0,0 UV-I 0 W/m 10,3 km/h (2 Bft)
25.02.2013 18:10 1,4 C 0,1 C 100 % 1021,5 hPa 0,0 l/m 0 min 0 min 0,0 UV-I 0 W/m 5,1 km/h (1 Bft)
25.02.2013 18:12 1,4 C 0,1 C 100 % 1021,5 hPa 0,0 l/m 0 min 0 min 0,0 UV-I 0 W/m 5,1 km/h (1 Bft)
25.02.2013 18:14 1,4 C 0,1 C 100 % 1021,5 hPa 0,0 l/m 0 min 0 min 0,0 UV-I 0 W/m 5,1 km/h (1 Bft)
25.02.2013 18:16 1,4 C 0,1 C 100 % 1021,6 hPa 0,0 l/m 0 min 0 min 0,0 UV-I 0 W/m 0,0 km/h (0 Bft)
25.02.2013 18:18 1,4 C 0,1 C 100 % 1021,7 hPa 0,0 l/m 0 min 0 min 0,0 UV-I 0 W/m 5,1 km/h (1 Bft)
25.02.2013 18:20 1,4 C 0,1 C 100 % 1021,7 hPa 0,0 l/m 0 min 0 min 0,0 UV-I 0 W/m 0,0 km/h (0 Bft)
25.02.2013 18:22 1,4 C 0,1 C 100 % 1021,7 hPa 0,0 l/m 0 min 0 min 0,0 UV-I 0 W/m 2,6 km/h (1 Bft)
25.02.2013 18:24 1,4 C 0,1 C 100 % 1021,8 hPa 0,0 l/m 0 min 0 min 0,0 UV-I 0 W/m 2,6 km/h (1 Bft)
25.02.2013 18:26 1,4 C 0,1 C 100 % 1021,8 hPa 0,0 l/m 0 min 0 min 0,0 UV-I 0 W/m 5,1 km/h (1 Bft)
25.02.2013 18:28 1,4 C 0,1 C 100 % 1021,8 hPa 0,0 l/m 0 min 0 min 0,0 UV-I 0 W/m 5,1 km/h (1 Bft)
25.02.2013 18:30 1,3 C 0,1 C 100 % 1021,8 hPa 0,0 l/m 0 min 0 min 0,0 UV-I 0 W/m 10,3 km/h (2 Bft)
25.02.2013 18:32 1,3 C 0,1 C 100 % 1021,8 hPa 0,0 l/m 0 min 0 min 0,0 UV-I 0 W/m 2,6 km/h (1 Bft)
25.02.2013 18:34 1,3 C 0,1 C 100 % 1021,9 hPa 0,0 l/m 0 min 2 min 0,0 UV-I 0 W/m 0,0 km/h (0 Bft)
25.02.2013 18:36 1,3 C 0,1 C 100 % 1021,8 hPa 0,0 l/m 0 min 2 min 0,0 UV-I 0 W/m 0,0 km/h (0 Bft)
25.02.2013 18:38 1,3 C 0,1 C 100 % 1021,9 hPa 0,0 l/m 0 min 2 min 0,0 UV-I 0 W/m 0,0 km/h (0 Bft)
25.02.2013 18:40 1,3 C 0,1 C 100 % 1021,9 hPa 0,0 l/m 0 min 2 min 0,0 UV-I 0 W/m 2,6 km/h (1 Bft)
25.02.2013 18:42 1,3 C 0,1 C 100 % 1021,9 hPa 0,0 l/m 0 min 2 min 0,0 UV-I 0 W/m 7,7 km/h (2 Bft)
25.02.2013 18:44 1,3 C 0,1 C 100 % 1022,0 hPa 0,0 l/m 0 min 0 min 0,0 UV-I 0 W/m 2,6 km/h (1 Bft)
25.02.2013 18:46 1,3 C 0,1 C 100 % 1022,0 hPa 0,0 l/m 0 min 0 min 0,0 UV-I 0 W/m 10,3 km/h (2 Bft)
25.02.2013 18:48 1,3 C 0,1 C 100 % 1022,0 hPa 0,0 l/m 0 min 2 min 0,0 UV-I 0 W/m 0,0 km/h (0 Bft)
25.02.2013 18:50 1,3 C 0,1 C 100 % 1022,0 hPa 0,0 l/m 0 min 2 min 0,0 UV-I 0 W/m 2,6 km/h (1 Bft)
25.02.2013 18:52 1,3 C 0,1 C 100 % 1022,0 hPa 0,0 l/m 0 min 2 min 0,0 UV-I 0 W/m 7,7 km/h (2 Bft)
25.02.2013 18:54 1,3 C 0,1 C 100 % 1022,1 hPa 0,0 l/m 0 min 0 min 0,0 UV-I 0 W/m 0,0 km/h (0 Bft)
25.02.2013 18:56 1,3 C 0,1 C 100 % 1022,1 hPa 0,0 l/m 0 min 0 min 0,0 UV-I 0 W/m 0,0 km/h (0 Bft)
25.02.2013 18:58 1,3 C 0,1 C 100 % 1022,1 hPa 0,0 l/m 0 min 0 min 0,0 UV-I 0 W/m 7,7 km/h (2 Bft)
25.02.2013 19:00 1,3 C 0,1 C 100 % 1022,2 hPa 0,0 l/m 0 min 0 min 0,0 UV-I 0 W/m 5,1 km/h (1 Bft)
25.02.2013 19:02 1,3 C 0,1 C 100 % 1022,2 hPa 0,0 l/m 0 min 0 min 0,0 UV-I 0 W/m 2,6 km/h (1 Bft)
25.02.2013 19:04 1,3 C 0,1 C 100 % 1022,2 hPa 0,0 l/m 0 min 0 min 0,0 UV-I 0 W/m 10,3 km/h (2 Bft)
25.02.2013 19:06 1,3 C 0,1 C 100 % 1022,2 hPa 0,0 l/m 0 min 0 min 0,0 UV-I 0 W/m 0,0 km/h (0 Bft)
25.02.2013 19:08 1,3 C 0,1 C 100 % 1022,2 hPa 0,0 l/m 0 min 0 min 0,0 UV-I 0 W/m 5,1 km/h (1 Bft)
25.02.2013 19:10 1,3 C 0,1 C 100 % 1022,3 hPa 0,0 l/m 0 min 0 min 0,0 UV-I 0 W/m 7,7 km/h (2 Bft)
25.02.2013 19:12 1,3 C 0,1 C 100 % 1022,3 hPa 0,0 l/m 0 min 0 min 0,0 UV-I 0 W/m 2,6 km/h (1 Bft)
25.02.2013 19:14 1,4 C 0,1 C 100 % 1022,3 hPa 0,0 l/m 0 min 2 min 0,0 UV-I 0 W/m 2,6 km/h (1 Bft)
25.02.2013 19:16 1,4 C 0,1 C 100 % 1022,4 hPa 0,0 l/m 0 min 0 min 0,0 UV-I 0 W/m 5,1 km/h (1 Bft)
25.02.2013 19:18 1,4 C 0,1 C 100 % 1022,4 hPa 0,0 l/m 0 min 0 min 0,0 UV-I 0 W/m 5,1 km/h (1 Bft)
25.02.2013 19:20 1,4 C 0,1 C 100 % 1022,4 hPa 0,0 l/m 0 min 0 min 0,0 UV-I 0 W/m 7,7 km/h (2 Bft)
25.02.2013 19:22 1,4 C 0,1 C 100 % 1022,4 hPa 0,0 l/m 0 min 0 min 0,0 UV-I 0 W/m 7,7 km/h (2 Bft)
25.02.2013 19:24 1,4 C 0,1 C 100 % 1022,4 hPa 0,0 l/m 0 min 0 min 0,0 UV-I 0 W/m 5,1 km/h (1 Bft)
25.02.2013 19:26 1,4 C 0,1 C 100 % 1022,5 hPa 0,0 l/m 0 min 0 min 0,0 UV-I 0 W/m 5,1 km/h (1 Bft)
25.02.2013 19:28 1,4 C 0,1 C 100 % 1022,5 hPa 0,0 l/m 0 min 0 min 0,0 UV-I 0 W/m 5,1 km/h (1 Bft)
25.02.2013 19:30 1,4 C 0,1 C 100 % 1022,5 hPa 0,0 l/m 0 min 0 min 0,0 UV-I 0 W/m 0,0 km/h (0 Bft)
25.02.2013 19:32 1,4 C 0,1 C 100 % 1022,5 hPa 0,0 l/m 0 min 0 min 0,0 UV-I 0 W/m 5,1 km/h (1 Bft)
25.02.2013 19:34 1,4 C 0,1 C 100 % 1022,5 hPa 0,0 l/m 0 min 0 min 0,0 UV-I 0 W/m 0,0 km/h (0 Bft)
25.02.2013 19:36 1,4 C 0,1 C 100 % 1022,5 hPa 0,0 l/m 0 min 0 min 0,0 UV-I 0 W/m 0,0 km/h (0 Bft)
25.02.2013 19:38 1,5 C 0,1 C 100 % 1022,6 hPa 0,0 l/m 0 min 0 min 0,0 UV-I 0 W/m 0,0 km/h (0 Bft)
25.02.2013 19:40 1,4 C 0,1 C 100 % 1022,6 hPa 0,0 l/m 0 min 0 min 0,0 UV-I 0 W/m 5,1 km/h (1 Bft)
25.02.2013 19:42 1,5 C 0,1 C 100 % 1022,6 hPa 0,0 l/m 0 min 0 min 0,0 UV-I 0 W/m 5,1 km/h (1 Bft)
25.02.2013 19:44 1,5 C 0,1 C 100 % 1022,7 hPa 0,0 l/m 0 min 0 min 0,0 UV-I 0 W/m 2,6 km/h (1 Bft)
25.02.2013 19:46 1,4 C 0,1 C 100 % 1022,6 hPa 0,0 l/m 0 min 0 min 0,0 UV-I 0 W/m 0,0 km/h (0 Bft)
25.02.2013 19:48 1,5 C 0,1 C 100 % 1022,6 hPa 0,0 l/m 0 min 0 min 0,0 UV-I 0 W/m 7,7 km/h (2 Bft)
25.02.2013 19:50 1,5 C 0,1 C 100 % 1022,6 hPa 0,0 l/m 0 min 0 min 0,0 UV-I 0 W/m 7,7 km/h (2 Bft)
25.02.2013 19:52 1,5 C 0,1 C 100 % 1022,6 hPa 0,0 l/m 0 min 0 min 0,0 UV-I 0 W/m 0,0 km/h (0 Bft)
25.02.2013 19:54 1,5 C 0,1 C 100 % 1022,6 hPa 0,0 l/m 0 min 0 min 0,0 UV-I 0 W/m 2,6 km/h (1 Bft)
25.02.2013 19:56 1,5 C 0,1 C 100 % 1022,7 hPa 0,0 l/m 0 min 0 min 0,0 UV-I 0 W/m 0,0 km/h (0 Bft)
25.02.2013 19:58 1,5 C 0,1 C 100 % 1022,6 hPa 0,0 l/m 0 min 0 min 0,0 UV-I 0 W/m 5,1 km/h (1 Bft)
25.02.2013 20:00 1,5 C 0,1 C 100 % 1022,5 hPa 0,0 l/m 0 min 0 min 0,0 UV-I 0 W/m 0,0 km/h (0 Bft)
25.02.2013 20:02 1,5 C 0,1 C 100 % 1022,6 hPa 0,0 l/m 0 min 0 min 0,0 UV-I 0 W/m 5,1 km/h (1 Bft)
25.02.2013 20:04 1,5 C 0,1 C 100 % 1022,6 hPa 0,0 l/m 0 min 0 min 0,0 UV-I 0 W/m 5,1 km/h (1 Bft)
25.02.2013 20:06 1,5 C 0,1 C 100 % 1022,5 hPa 0,0 l/m 0 min 0 min 0,0 UV-I 0 W/m 0,0 km/h (0 Bft)
25.02.2013 20:08 1,5 C 0,1 C 100 % 1022,5 hPa 0,0 l/m 0 min 0 min 0,0 UV-I 0 W/m 2,6 km/h (1 Bft)
25.02.2013 20:10 1,5 C 0,1 C 100 % 1022,5 hPa 0,0 l/m 0 min 0 min 0,0 UV-I 0 W/m 0,0 km/h (0 Bft)
25.02.2013 20:12 1,5 C 0,1 C 100 % 1022,6 hPa 0,0 l/m 0 min 0 min 0,0 UV-I 0 W/m 0,0 km/h (0 Bft)
25.02.2013 20:14 1,5 C 0,1 C 100 % 1022,7 hPa 0,0 l/m 0 min 0 min 0,0 UV-I 0 W/m 0,0 km/h (0 Bft)
25.02.2013 20:16 1,5 C 0,1 C 100 % 1022,7 hPa 0,0 l/m 0 min 0 min 0,0 UV-I 0 W/m 0,0 km/h (0 Bft)
25.02.2013 20:18 1,5 C 0,1 C 100 % 1022,9 hPa 0,0 l/m 0 min 0 min 0,0 UV-I 0 W/m 5,1 km/h (1 Bft)
25.02.2013 20:20 1,5 C 0,1 C 100 % 1022,9 hPa 0,0 l/m 0 min 0 min 0,0 UV-I 0 W/m 0,0 km/h (0 Bft)
25.02.2013 20:22 1,5 C 0,1 C 100 % 1023,1 hPa 0,0 l/m 0 min 0 min 0,0 UV-I 0 W/m 0,0 km/h (0 Bft)
25.02.2013 20:24 1,5 C 0,1 C 100 % 1023,1 hPa 0,0 l/m 0 min 0 min 0,0 UV-I 0 W/m 7,7 km/h (2 Bft)
25.02.2013 20:26 1,5 C 0,1 C 100 % 1023,1 hPa 0,0 l/m 0 min 0 min 0,0 UV-I 0 W/m 5,1 km/h (1 Bft)
25.02.2013 20:28 1,5 C 0,1 C 100 % 1023,1 hPa 0,0 l/m 0 min 0 min 0,0 UV-I 0 W/m 5,1 km/h (1 Bft)
25.02.2013 20:30 1,5 C 0,1 C 100 % 1023,2 hPa 0,0 l/m 0 min 0 min 0,0 UV-I 0 W/m 7,7 km/h (2 Bft)
25.02.2013 20:32 1,5 C 0,1 C 100 % 1023,2 hPa 0,0 l/m 0 min 0 min 0,0 UV-I 0 W/m 0,0 km/h (0 Bft)
25.02.2013 20:34 1,5 C 0,1 C 100 % 1023,3 hPa 0,0 l/m 0 min 0 min 0,0 UV-I 0 W/m 5,1 km/h (1 Bft)
25.02.2013 20:36 1,5 C 0,1 C 100 % 1023,4 hPa 0,0 l/m 0 min 0 min 0,0 UV-I 0 W/m 5,1 km/h (1 Bft)
25.02.2013 20:38 1,5 C 0,1 C 100 % 1023,4 hPa 0,0 l/m 0 min 0 min 0,0 UV-I 0 W/m 7,7 km/h (2 Bft)
25.02.2013 20:40 1,5 C 0,1 C 100 % 1023,4 hPa 0,0 l/m 0 min 0 min 0,0 UV-I 0 W/m 5,1 km/h (1 Bft)
25.02.2013 20:42 1,5 C 0,1 C 100 % 1023,4 hPa 0,0 l/m 0 min 0 min 0,0 UV-I 0 W/m 0,0 km/h (0 Bft)
25.02.2013 20:44 1,5 C 0,1 C 100 % 1023,4 hPa 0,0 l/m 0 min 0 min 0,0 UV-I 0 W/m 2,6 km/h (1 Bft)
25.02.2013 20:46 1,5 C 0,1 C 100 % 1023,4 hPa 0,0 l/m 0 min 0 min 0,0 UV-I 0 W/m 5,1 km/h (1 Bft)
25.02.2013 20:48 1,5 C 0,1 C 100 % 1023,5 hPa 0,0 l/m 0 min 0 min 0,0 UV-I 0 W/m 5,1 km/h (1 Bft)
25.02.2013 20:50 1,5 C 0,1 C 100 % 1023,5 hPa 0,0 l/m 0 min 0 min 0,0 UV-I 0 W/m 5,1 km/h (1 Bft)
25.02.2013 20:52 1,5 C 0,1 C 100 % 1023,5 hPa 0,0 l/m 0 min 0 min 0,0 UV-I 0 W/m 2,6 km/h (1 Bft)
25.02.2013 20:54 1,5 C 0,1 C 100 % 1023,6 hPa 0,0 l/m 0 min 0 min 0,0 UV-I 0 W/m 0,0 km/h (0 Bft)
25.02.2013 20:56 1,5 C 0,1 C 100 % 1023,6 hPa 0,0 l/m 0 min 0 min 0,0 UV-I 0 W/m 10,3 km/h (2 Bft)
25.02.2013 20:58 1,5 C 0,1 C 100 % 1023,5 hPa 0,0 l/m 0 min 0 min 0,0 UV-I 0 W/m 5,1 km/h (1 Bft)
25.02.2013 21:00 1,5 C 0,1 C 100 % 1023,5 hPa 0,0 l/m 0 min 0 min 0,0 UV-I 0 W/m 5,1 km/h (1 Bft)
25.02.2013 21:02 1,5 C 0,1 C 100 % 1023,6 hPa 0,0 l/m 0 min 0 min 0,0 UV-I 0 W/m 0,0 km/h (0 Bft)
25.02.2013 21:04 1,5 C 0,1 C 100 % 1023,6 hPa 0,0 l/m 0 min 0 min 0,0 UV-I 0 W/m 0,0 km/h (0 Bft)
25.02.2013 21:06 1,5 C 0,1 C 100 % 1023,6 hPa 0,0 l/m 0 min 0 min 0,0 UV-I 0 W/m 12,9 km/h (3 Bft)
25.02.2013 21:08 1,5 C 0,1 C 100 % 1023,7 hPa 0,0 l/m 0 min 0 min 0,0 UV-I 0 W/m 0,0 km/h (0 Bft)
25.02.2013 21:10 1,5 C 0,1 C 100 % 1023,7 hPa 0,0 l/m 0 min 0 min 0,0 UV-I 0 W/m 7,7 km/h (2 Bft)
25.02.2013 21:12 1,5 C 0,1 C 100 % 1023,7 hPa 0,0 l/m 0 min 0 min 0,0 UV-I 0 W/m 5,1 km/h (1 Bft)
25.02.2013 21:14 1,5 C 0,1 C 100 % 1023,8 hPa 0,0 l/m 0 min 0 min 0,0 UV-I 0 W/m 2,6 km/h (1 Bft)
25.02.2013 21:16 1,5 C 0,1 C 100 % 1023,8 hPa 0,0 l/m 0 min 0 min 0,0 UV-I 0 W/m 0,0 km/h (0 Bft)
25.02.2013 21:18 1,5 C 0,1 C 100 % 1023,9 hPa 0,0 l/m 0 min 0 min 0,0 UV-I 0 W/m 0,0 km/h (0 Bft)
25.02.2013 21:20 1,5 C 0,1 C 100 % 1023,9 hPa 0,0 l/m 0 min 0 min 0,0 UV-I 0 W/m 5,1 km/h (1 Bft)
25.02.2013 21:22 1,5 C 0,1 C 100 % 1024,0 hPa 0,0 l/m 0 min 0 min 0,0 UV-I 0 W/m 10,3 km/h (2 Bft)
25.02.2013 21:24 1,5 C 0,1 C 100 % 1024,0 hPa 0,0 l/m 0 min 0 min 0,0 UV-I 0 W/m 5,1 km/h (1 Bft)
25.02.2013 21:26 1,5 C 0,1 C 100 % 1024,0 hPa 0,0 l/m 0 min 0 min 0,0 UV-I 0 W/m 5,1 km/h (1 Bft)
25.02.2013 21:28 1,5 C 0,1 C 100 % 1024,0 hPa 0,0 l/m 0 min 0 min 0,0 UV-I 0 W/m 5,1 km/h (1 Bft)
25.02.2013 21:30 1,5 C 0,1 C 100 % 1023,8 hPa 0,0 l/m 0 min 0 min 0,0 UV-I 0 W/m 7,7 km/h (2 Bft)
25.02.2013 21:32 1,5 C 0,1 C 100 % 1023,8 hPa 0,0 l/m 0 min 0 min 0,0 UV-I 0 W/m 5,1 km/h (1 Bft)
25.02.2013 21:34 1,5 C 0,1 C 100 % 1024,0 hPa 0,0 l/m 0 min 0 min 0,0 UV-I 0 W/m 10,3 km/h (2 Bft)
25.02.2013 21:36 1,5 C 0,1 C 100 % 1024,0 hPa 0,0 l/m 0 min 0 min 0,0 UV-I 0 W/m 7,7 km/h (2 Bft)
25.02.2013 21:38 1,5 C 0,1 C 100 % 1024,0 hPa 0,0 l/m 0 min 0 min 0,0 UV-I 0 W/m 7,7 km/h (2 Bft)
25.02.2013 21:40 1,5 C 0,1 C 100 % 1024,1 hPa 0,0 l/m 0 min 0 min 0,0 UV-I 0 W/m 7,7 km/h (2 Bft)
25.02.2013 21:42 1,5 C 0,1 C 100 % 1024,1 hPa 0,0 l/m 0 min 0 min 0,0 UV-I 0 W/m 2,6 km/h (1 Bft)
25.02.2013 21:44 1,5 C 0,1 C 100 % 1024,1 hPa 0,0 l/m 0 min 0 min 0,0 UV-I 0 W/m 2,6 km/h (1 Bft)
25.02.2013 21:46 1,5 C 0,1 C 100 % 1024,2 hPa 0,0 l/m 0 min 0 min 0,0 UV-I 0 W/m 10,3 km/h (2 Bft)
25.02.2013 21:48 1,5 C 0,1 C 100 % 1024,2 hPa 0,0 l/m 0 min 0 min 0,0 UV-I 0 W/m 0,0 km/h (0 Bft)
25.02.2013 21:50 1,5 C 0,1 C 100 % 1024,3 hPa 0,0 l/m 0 min 0 min 0,0 UV-I 0 W/m 2,6 km/h (1 Bft)
25.02.2013 21:52 1,5 C 0,1 C 100 % 1024,3 hPa 0,0 l/m 0 min 0 min 0,0 UV-I 0 W/m 5,1 km/h (1 Bft)
25.02.2013 21:54 1,5 C 0,1 C 100 % 1024,3 hPa 0,0 l/m 0 min 0 min 0,0 UV-I 0 W/m 0,0 km/h (0 Bft)
25.02.2013 21:56 1,5 C 0,1 C 100 % 1024,4 hPa 0,0 l/m 0 min 0 min 0,0 UV-I 0 W/m 0,0 km/h (0 Bft)
25.02.2013 21:58 1,6 C 0,1 C 100 % 1024,4 hPa 0,0 l/m 0 min 0 min 0,0 UV-I 0 W/m 0,0 km/h (0 Bft)
25.02.2013 22:00 1,6 C 0,1 C 100 % 1024,3 hPa 0,0 l/m 0 min 0 min 0,0 UV-I 0 W/m 7,7 km/h (2 Bft)
25.02.2013 22:02 1,6 C 0,1 C 100 % 1024,4 hPa 0,0 l/m 0 min 0 min 0,0 UV-I 0 W/m 5,1 km/h (1 Bft)
25.02.2013 22:04 1,6 C 0,1 C 100 % 1024,3 hPa 0,0 l/m 0 min 0 min 0,0 UV-I 0 W/m 0,0 km/h (0 Bft)
25.02.2013 22:06 1,6 C 0,1 C 100 % 1024,4 hPa 0,0 l/m 0 min 0 min 0,0 UV-I 0 W/m 0,0 km/h (0 Bft)
25.02.2013 22:08 1,5 C 0,1 C 100 % 1024,4 hPa 0,0 l/m 0 min 0 min 0,0 UV-I 0 W/m 5,1 km/h (1 Bft)
25.02.2013 22:10 1,6 C 0,1 C 100 % 1024,4 hPa 0,0 l/m 0 min 0 min 0,0 UV-I 0 W/m 2,6 km/h (1 Bft)
25.02.2013 22:12 1,5 C 0,1 C 100 % 1024,4 hPa 0,0 l/m 0 min 0 min 0,0 UV-I 0 W/m 7,7 km/h (2 Bft)
25.02.2013 22:14 1,6 C 0,1 C 100 % 1024,4 hPa 0,0 l/m 0 min 0 min 0,0 UV-I 0 W/m 5,1 km/h (1 Bft)
25.02.2013 22:16 1,5 C 0,1 C 100 % 1024,4 hPa 0,0 l/m 0 min 0 min 0,0 UV-I 0 W/m 5,1 km/h (1 Bft)
25.02.2013 22:18 1,6 C 0,1 C 100 % 1024,5 hPa 0,0 l/m 0 min 0 min 0,0 UV-I 0 W/m 0,0 km/h (0 Bft)
25.02.2013 22:20 1,6 C 0,1 C 100 % 1024,5 hPa 0,0 l/m 0 min 0 min 0,0 UV-I 0 W/m 2,6 km/h (1 Bft)
25.02.2013 22:22 1,5 C 0,1 C 100 % 1024,5 hPa 0,0 l/m 0 min 0 min 0,0 UV-I 0 W/m 0,0 km/h (0 Bft)
25.02.2013 22:24 1,6 C 0,1 C 100 % 1024,5 hPa 0,0 l/m 0 min 0 min 0,0 UV-I 0 W/m 5,1 km/h (1 Bft)
25.02.2013 22:26 1,5 C 0,1 C 100 % 1024,5 hPa 0,0 l/m 0 min 0 min 0,0 UV-I 0 W/m 7,7 km/h (2 Bft)
25.02.2013 22:28 1,6 C 0,1 C 100 % 1024,5 hPa 0,0 l/m 0 min 0 min 0,0 UV-I 0 W/m 0,0 km/h (0 Bft)
25.02.2013 22:30 1,5 C 0,1 C 100 % 1024,5 hPa 0,0 l/m 0 min 0 min 0,0 UV-I 0 W/m 5,1 km/h (1 Bft)
25.02.2013 22:32 1,5 C 0,1 C 100 % 1024,6 hPa 0,0 l/m 0 min 0 min 0,0 UV-I 0 W/m 5,1 km/h (1 Bft)
25.02.2013 22:34 1,6 C 0,1 C 100 % 1024,6 hPa 0,0 l/m 0 min 0 min 0,0 UV-I 0 W/m 0,0 km/h (0 Bft)
25.02.2013 22:36 1,6 C 0,1 C 100 % 1024,6 hPa 0,0 l/m 0 min 0 min 0,0 UV-I 0 W/m 5,1 km/h (1 Bft)
25.02.2013 22:38 1,5 C 0,1 C 100 % 1024,6 hPa 0,0 l/m 0 min 0 min 0,0 UV-I 0 W/m 7,7 km/h (2 Bft)
25.02.2013 22:40 1,5 C 0,1 C 100 % 1024,6 hPa 0,0 l/m 0 min 0 min 0,0 UV-I 0 W/m 2,6 km/h (1 Bft)
25.02.2013 22:42 1,6 C 0,1 C 100 % 1024,6 hPa 0,0 l/m 0 min 0 min 0,0 UV-I 0 W/m 5,1 km/h (1 Bft)
25.02.2013 22:44 1,5 C 0,1 C 100 % 1024,6 hPa 0,0 l/m 0 min 0 min 0,0 UV-I 0 W/m 5,1 km/h (1 Bft)
25.02.2013 22:46 1,5 C 0,1 C 100 % 1024,6 hPa 0,0 l/m 0 min 0 min 0,0 UV-I 0 W/m 7,7 km/h (2 Bft)
25.02.2013 22:48 1,5 C 0,1 C 100 % 1024,7 hPa 0,0 l/m 0 min 0 min 0,0 UV-I 0 W/m 7,7 km/h (2 Bft)
25.02.2013 22:50 1,6 C 0,1 C 100 % 1024,7 hPa 0,0 l/m 0 min 0 min 0,0 UV-I 0 W/m 10,3 km/h (2 Bft)
25.02.2013 22:52 1,6 C 0,1 C 100 % 1024,7 hPa 0,0 l/m 0 min 0 min 0,0 UV-I 0 W/m 2,6 km/h (1 Bft)
25.02.2013 22:54 1,6 C 0,1 C 100 % 1024,6 hPa 0,0 l/m 0 min 0 min 0,0 UV-I 0 W/m 7,7 km/h (2 Bft)
25.02.2013 22:56 1,6 C 0,1 C 100 % 1024,6 hPa 0,0 l/m 0 min 0 min 0,0 UV-I 0 W/m 2,6 km/h (1 Bft)
25.02.2013 22:58 1,6 C 0,1 C 100 % 1024,7 hPa 0,0 l/m 0 min 0 min 0,0 UV-I 0 W/m 5,1 km/h (1 Bft)
25.02.2013 23:00 1,6 C 0,1 C 100 % 1024,8 hPa 0,0 l/m 0 min 0 min 0,0 UV-I 0 W/m 2,6 km/h (1 Bft)
25.02.2013 23:02 1,6 C 0,1 C 100 % 1024,8 hPa 0,0 l/m 0 min 0 min 0,0 UV-I 0 W/m 0,0 km/h (0 Bft)
25.02.2013 23:04 1,6 C 0,1 C 100 % 1024,8 hPa 0,0 l/m 0 min 0 min 0,0 UV-I 0 W/m 2,6 km/h (1 Bft)
25.02.2013 23:06 1,6 C 0,1 C 100 % 1024,8 hPa 0,0 l/m 0 min 0 min 0,0 UV-I 0 W/m 10,3 km/h (2 Bft)
25.02.2013 23:08 1,6 C 0,1 C 100 % 1024,8 hPa 0,0 l/m 0 min 0 min 0,0 UV-I 0 W/m 7,7 km/h (2 Bft)
25.02.2013 23:10 1,6 C 0,1 C 100 % 1024,8 hPa 0,0 l/m 0 min 0 min 0,0 UV-I 0 W/m 7,7 km/h (2 Bft)
25.02.2013 23:12 1,6 C 0,1 C 100 % 1024,8 hPa 0,0 l/m 0 min 0 min 0,0 UV-I 0 W/m 7,7 km/h (2 Bft)
25.02.2013 23:14 1,6 C 0,1 C 100 % 1024,9 hPa 0,0 l/m 0 min 0 min 0,0 UV-I 0 W/m 5,1 km/h (1 Bft)
25.02.2013 23:16 1,6 C 0,1 C 100 % 1024,9 hPa 0,0 l/m 0 min 0 min 0,0 UV-I 0 W/m 5,1 km/h (1 Bft)
25.02.2013 23:18 1,6 C 0,1 C 100 % 1024,9 hPa 0,0 l/m 0 min 0 min 0,0 UV-I 0 W/m 10,3 km/h (2 Bft)
25.02.2013 23:20 1,6 C 0,1 C 100 % 1024,9 hPa 0,0 l/m 0 min 0 min 0,0 UV-I 0 W/m 5,1 km/h (1 Bft)
25.02.2013 23:22 1,6 C 0,1 C 100 % 1024,9 hPa 0,0 l/m 0 min 0 min 0,0 UV-I 0 W/m 7,7 km/h (2 Bft)
25.02.2013 23:24 1,6 C 0,1 C 100 % 1024,8 hPa 0,0 l/m 0 min 0 min 0,0 UV-I 0 W/m 7,7 km/h (2 Bft)
25.02.2013 23:26 1,6 C 0,1 C 100 % 1024,9 hPa 0,0 l/m 0 min 0 min 0,0 UV-I 0 W/m 5,1 km/h (1 Bft)
25.02.2013 23:28 1,6 C 0,1 C 100 % 1024,8 hPa 0,0 l/m 0 min 0 min 0,0 UV-I 0 W/m 2,6 km/h (1 Bft)
25.02.2013 23:30 1,6 C 0,1 C 100 % 1024,9 hPa 0,0 l/m 0 min 0 min 0,0 UV-I 0 W/m 5,1 km/h (1 Bft)
25.02.2013 23:32 1,6 C 0,1 C 100 % 1025,0 hPa 0,0 l/m 0 min 0 min 0,0 UV-I 0 W/m 0,0 km/h (0 Bft)
25.02.2013 23:34 1,6 C 0,1 C 100 % 1025,0 hPa 0,0 l/m 0 min 0 min 0,0 UV-I 0 W/m 0,0 km/h (0 Bft)
25.02.2013 23:36 1,6 C 0,1 C 100 % 1025,0 hPa 0,0 l/m 0 min 0 min 0,0 UV-I 0 W/m 5,1 km/h (1 Bft)
25.02.2013 23:38 1,6 C 0,1 C 100 % 1025,0 hPa 0,0 l/m 0 min 0 min 0,0 UV-I 0 W/m 0,0 km/h (0 Bft)
25.02.2013 23:40 1,6 C 0,1 C 100 % 1025,0 hPa 0,0 l/m 0 min 0 min 0,0 UV-I 0 W/m 2,6 km/h (1 Bft)
25.02.2013 23:42 1,6 C 0,1 C 100 % 1025,1 hPa 0,0 l/m 0 min 0 min 0,0 UV-I 0 W/m 0,0 km/h (0 Bft)
25.02.2013 23:44 1,6 C 0,1 C 100 % 1025,0 hPa 0,0 l/m 0 min 0 min 0,0 UV-I 0 W/m 0,0 km/h (0 Bft)
25.02.2013 23:46 1,6 C 0,1 C 100 % 1025,0 hPa 0,0 l/m 0 min 0 min 0,0 UV-I 0 W/m 0,0 km/h (0 Bft)
25.02.2013 23:48 1,6 C 0,1 C 100 % 1025,0 hPa 0,0 l/m 0 min 0 min 0,0 UV-I 0 W/m 2,6 km/h (1 Bft)
25.02.2013 23:50 1,6 C 0,1 C 100 % 1025,0 hPa 0,0 l/m 0 min 0 min 0,0 UV-I 0 W/m 0,0 km/h (0 Bft)
25.02.2013 23:52 1,6 C 0,1 C 100 % 1025,0 hPa 0,0 l/m 0 min 0 min 0,0 UV-I 0 W/m 0,0 km/h (0 Bft)
25.02.2013 23:54 1,5 C 0,1 C 100 % 1025,1 hPa 0,0 l/m 0 min 0 min 0,0 UV-I 0 W/m 0,0 km/h (0 Bft)
25.02.2013 23:56 1,5 C 0,1 C 100 % 1025,2 hPa 0,0 l/m 0 min 0 min 0,0 UV-I 0 W/m 0,0 km/h (0 Bft)
25.02.2013 23:58 1,6 C 0,1 C 100 % 1025,2 hPa 0,0 l/m 0 min 0 min 0,0 UV-I 0 W/m 0,0 km/h (0 Bft)
_ Min-Zeit 00:00 00:00 00:00 01:16 - - - - - 00:00
Minimum _ 0,4 C -1,0 C 99 % 1017,5 hPa - - - - - 0,0 km/h (0 Bft)
_ Max-Zeit 21:52 08:12 02:16 23:56 09:24 00:00 06:34 00:00 13:22 00:10
Maximum _ 1,6 C 0,1 C 100 % 1025,2 hPa 0,2 l/m 0 min 2 min 0,0 UV-I 63 W/m 20,6 km/h
NW (4 Bft)
Durchschnitt _ 1,0 C -0,2 C 100 % 1020,6 hPa #4,6 l/m #0 min. #7:50 h 0,0 UV-I 30 W/m 7,5 km/h (2 Bft)
© 2013 W. Hausmann